                ,  0.290,  0.386,  0.483,  0.580,  0.676,  0.773,  0.869,  0.966,  1.063,  1.159,  1.256,  1.352,  1.449,  1.545,  1.642,  1.739,  1.835,  1.932,  2.028,  2.125,  2.222,  2.318,  2.415,  2.511,  2.608,  2.705,  2.801,  2.898,  2.994,  3.091,  3.188,  3.284,  3.381,  3.477,  3.574,  3.671,  3.767,  3.864,  3.960,  4.057,  4.153,  4.250,  4.347,  4.443,  4.540,  4.636,  4.733,  4.830,  4.926,  5.023,  5.119,  5.216,  5.313,  5.409,  5.506,  5.602,  5.699,  5.796
2000/11/18 00:00,  999.0,  999.0,  999.0,  999.0,  999.0,  999.0,   -5.1,   -4.8,   -5.1,   -3.4,   -2.1,   -1.8,   -2.2,  999.0,  999.0,  999.0,  999.0,  999.0,    0.5,   -0.3,   -0.2,    0.1,    0.2,  999.0,   -1.6,   -2.7,  999.0,  999.0,  999.0,  999.0,  999.0,  999.0,  999.0,  999.0,  999.0,  999.0,  999.0,  999.0,  999.0,  999.0,  999.0,  999.0,  999.0,  999.0,  999.0,  999.0,  999.0,  999.0,  999.0,  999.0,  999.0,  999.0,  999.0,  999.0,  999.0,  999.0,  999.0,  999.0
2000/11/18 00:10,  999.0,  999.0,   -0.3,  999.0,   -0.4,   -1.1,   -0.4,   -1.3,   -0.9,   -2.1,   -1.3,   -1.4,   -0.2,    0.6,  999.0,   -1.2,    2.1,  999.0,    2.8,    0.3,   -0.8,   -0.8,   -0.3,   -0.3,   -1.0,   -0.5,    0.0,    0.0,  999.0,  999.0,  999.0,  999.0,  999.0,  999.0,  999.0,  999.0,  999.0,  999.0,  999.0,  999.0,  999.0,  999.0,  999.0,  999.0,  999.0,  999.0,  999.0,  999.0,  999.0,  999.0,  999.0,  999.0,  999.0,  999.0,  999.0,  999.0,  999.0,  999.0
2000/11/18 00:20,  999.0,  999.0,   -2.0,   -4.4,   -0.9,   -2.1,   -2.0,  999.0,    0.0,    0.4,   -1.2,   -2.4,   -0.7,   -0.6,  999.0,  999.0,  999.0,  999.0,  999.0,    1.3,  999.0,    1.2,  999.0,    4.2,    3.8,    4.8,    4.9,    5.3,    5.4,  999.0,    8.1,    9.3,  999.0,  999.0,  999.0,  999.0,  999.0,  999.0,  999.0,  999.0,   16.3,  999.0,  999.0,  999.0,  999.0,  999.0,  999.0,  999.0,  999.0,  999.0,  999.0,  999.0,  999.0,  999.0,  999.0,  999.0,  999.0,  999.0
2000/11/18 00:30,  999.0,   -3.8,   -3.6,   -0.1,   -0.3,   -1.2,   -0.5,    1.0,   -1.2,    0.5,   -1.6,   -2.1,   -1.4,   -0.4,    0.9,   -2.4,  999.0,    1.3,   -0.7,   -1.2,   -0.3,  999.0,    2.6,    1.5,    3.0,    3.6,    4.2,    5.1,    5.7,    7.2,    7.8,    7.5,  999.0,  999.0,  999.0,  999.0,  999.0,  999.0,  999.0,  999.0,  999.0,  999.0,  999.0,  999.0,  999.0,  999.0,  999.0,  999.0,  999.0,  999.0,  999.0,  999.0,  999.0,  999.0,  999.0,  999.0,  999.0,  999.0
2000/11/18 00:40,  999.0,  999.0,   -1.7,   -0.8,    0.2,   -1.1,   -1.7,  999.0,   -0.1,   -2.8,   -1.8,   -2.2,   -1.8,   -0.1,  999.0,  999.0,  999.0,   -1.8,   -1.3,   -1.2,  999.0,    1.5,    3.6,    5.1,  999.0,    5.6,    7.1,    6.3,    7.7,    9.0,    9.7,  999.0,  999.0,  999.0,  999.0,  999.0,  999.0,  999.0,  999.0,  999.0,  999.0,  999.0,  999.0,  999.0,  999.0,  999.0,  999.0,  999.0,  999.0,  999.0,  999.0,  999.0,  999.0,  999.0,  999.0,  999.0,   23.0,  999.0
2000/11/18 00:50,  999.0,   -6.2,   -1.6,   -1.6,    1.4,    0.1,  999.0,  999.0,  999.0,   -2.2,   -3.5,   -3.3,   -2.3,  999.0,  999.0,   -0.4,    0.5,    0.3,    1.8,    2.9,    4.4,    5.0,    6.8,    6.5,  999.0,    8.4,    9.8,    9.2,   10.7,   10.9,   18.2,   16.9,   19.4,  999.0,  999.0,  999.0,   21.1,  999.0,  999.0,  999.0,  999.0,  999.0,  999.0,  999.0,  999.0,  999.0,  999.0,   22.9,   23.3,   23.2,   23.4,   23.9,  999.0,  999.0,  999.0,  999.0,   21.9,   22.4
2000/11/18 01:00,  999.0,  999.0,  999.0,   -1.0,   -0.8,   -0.5,   -1.5,  999.0,   -1.1,  999.0,   -2.1,   -2.3,  999.0,  999.0,  999.0,  999.0,    1.2,    1.4,    3.9,    5.6,  999.0,    4.8,    5.4,    6.6,    8.4,    8.2,    8.3,    9.3,   11.8,   13.4,   13.5,   15.7,   18.5,   19.6,  999.0,  999.0,  999.0,  999.0,  999.0,  999.0,  999.0,  999.0,  999.0,  999.0,  999.0,  999.0,   23.0,   23.3,   23.0,   23.6,  999.0,  999.0,  999.0,  999.0,   21.8,  999.0,   23.0,  999.0
2000/11/18 01:10,  999.0,  999.0,  999.0,   -0.7,   -0.3,   -1.1,    0.2,  999.0,    0.6,   -0.8,   -2.3,   -1.4,   -1.2,   -0.7,  999.0,  999.0,    0.0,   -0.4,  999.0,    1.0,    2.0,    2.8,    4.1,    3.4,    5.4,    7.6,    9.1,    8.7,   10.9,   12.1,  999.0,   15.3,   16.5,  999.0,  999.0,  999.0,  999.0,  999.0,  999.0,  999.0,  999.0,  999.0,  999.0,  999.0,  999.0,  999.0,  999.0,   23.0,   22.9,   23.7,   23.5,  999.0,   23.8,  999.0,  999.0,  999.0,  999.0,   22.5
2000/11/18 01:20,  999.0,   -6.3,   -1.9,   -1.9,   -1.4,   -0.3,   -0.5,    3.0,   -0.1,   -0.8,   -2.1,   -2.3,   -0.6,  999.0,  999.0,  999.0,  999.0,   -1.1,    0.4,    0.2,    0.4,    1.5,    3.2,    3.1,    4.3,    5.7,    7.3,  999.0,   11.7,  999.0,  999.0,   12.5,   16.1,   16.0,  999.0,  999.0,   17.4,  999.0,  999.0,  999.0,  999.0,  999.0,  999.0,  999.0,  999.0,  999.0,  999.0,  999.0,   23.1,   24.2,   24.1,  999.0,  999.0,  999.0,  999.0,  999.0,  999.0,  999.0
2000/11/18 01:30,  999.0,  999.0,   -2.7,   -2.3,   -2.3,   -0.7,   -0.1,  999.0,  999.0,   -0.5,   -1.5,  999.0,   -2.9,   -1.5,   -2.7,   -2.2,  999.0,    0.7,    1.1,    1.2,    1.9,    2.4,    3.3,    4.0,  999.0,    6.0,    7.6,    8.1,    8.3,  999.0,   11.8,   12.2,   13.8,  999.0,   16.1,  999.0,   19.0,  999.0,  999.0,  999.0,  999.0,  999.0,  999.0,  999.0,  999.0,  999.0,  999.0,  999.0,   24.7,   23.9,   24.2,   23.8,  999.0,   22.0,  999.0,  999.0,  999.0,  999.0
2000/11/18 01:40,  999.0,  999.0,   -3.9,   -0.5,   -0.1,   -0.4,   -2.1,   -0.4,   -0.7,   -1.9,   -2.7,   -2.8,   -2.3,   -2.9,   -1.2,   -2.6,    0.5,  999.0,  999.0,    3.4,    3.5,  999.0,    5.2,    1.9,    8.2,  999.0,    9.4,    9.5,    8.9,   10.5,  999.0,  999.0,  999.0,  999.0,  999.0,  999.0,   13.1,  999.0,  999.0,  999.0,  999.0,   21.9,  999.0,  999.0,  999.0,  999.0,  999.0,  999.0,  999.0,   24.2,  999.0,  999.0,  999.0,  999.0,  999.0,  999.0,   26.1,  999.0
2000/11/18 01:50,  999.0,  999.0,   -0.7,   -0.1,   -2.1,   -1.0,   -0.8,   -1.3,   -1.3,   -1.3,   -1.5,   -2.5,   -1.6,   -1.5,  999.0,  999.0,  999.0,    0.5,  999.0,    5.3,  999.0,    4.1,    7.3,  999.0,  999.0,    5.6,    6.1,   10.1,    9.6,  999.0,   12.7,  999.0,   15.6,  999.0,  999.0,  999.0,  999.0,   22.1,  999.0,  999.0,  999.0,  999.0,  999.0,   22.8,   22.9,  999.0,  999.0,  999.0,  999.0,   24.7,  999.0,  999.0,  999.0,  999.0,  999.0,  999.0,  999.0,  999.0
2000/11/18 02:00,  999.0,   -2.1,    0.6,    0.3,   -2.3,   -0.5,   -1.2,   -0.5,   -2.2,   -2.4,   -2.9,   -2.6,   -3.0,   -2.2,   -3.0,   -2.1,   -1.6,   -0.2,  999.0,    2.4,  999.0,    2.0,    5.4,    5.3,    5.7,    8.7,  999.0,  999.0,  999.0,   13.3,   13.1,  999.0,   16.1,  999.0,  999.0,  999.0,  999.0,  999.0,  999.0,  999.0,  999.0,  999.0,   23.3,  999.0,  999.0,  999.0,  999.0,  999.0,   25.7,  999.0,  999.0,  999.0,   25.8,  999.0,  999.0,  999.0,   26.5,  999.0
2000/11/18 02:10,  999.0,  999.0,  999.0,   -2.2,   -1.4,   -0.4,   -0.3,   -0.9,   -1.0,   -1.0,   -1.8,   -2.3,   -1.9,   -1.0,   -1.1,   -1.9,   -1.1,   -1.1,   -1.0,  999.0,  999.0,    5.4,    3.3,  999.0,    4.7,    7.2,    8.9,  999.0,    8.8,   13.2,  999.0,  999.0,  999.0,  999.0,  999.0,  999.0,  999.0,  999.0,   20.3,  999.0,  999.0,   24.2,  999.0,  999.0,  999.0,  999.0,  999.0,  999.0,  999.0,  999.0,   26.0,   26.2,   25.8,  999.0,  999.0,   24.3,  999.0,  999.0
2000/11/18 02:20,  999.0,  999.0,    0.2,   -0.2,   -1.7,   -1.1,   -0.7,  999.0,   -1.3,   -1.1,   -1.9,   -2.9,   -3.1,   -2.9,   -3.5,   -1.7,   -1.0,   -0.6,   -2.1,    2.2,  999.0,  999.0,  999.0,  999.0,  999.0,    7.1,    9.1,    9.0,  999.0,   11.8,   13.0,  999.0,  999.0,   14.7,  999.0,  999.0,  999.0,  999.0,  999.0,  999.0,  999.0,  999.0,  999.0,  999.0,  999.0,  999.0,  999.0,  999.0,  999.0,  999.0,  999.0,  999.0,  999.0,   25.5,   25.6,   25.2,   25.7,   25.4
2000/11/18 02:30,  999.0,  999.0,  999.0,   -1.4,    1.0,    0.2,   -1.0,   -0.7,   -1.0,   -2.1,   -3.4,   -3.1,   -3.2,   -3.0,   -2.6,   -1.3,   -1.4,   -1.5,    1.7,  999.0,  999.0,    1.9,    5.4,    4.9,    8.4,    8.4,   10.7,   10.7,   13.8,   12.4,   13.3,   15.5,   15.2,   14.3,  999.0,  999.0,  999.0,   22.8,  999.0,  999.0,  999.0,  999.0,  999.0,  999.0,  999.0,  999.0,  999.0,  999.0,  999.0,   26.5,   25.1,   26.0,   25.2,   25.0,   25.2,   24.8,   24.6,   24.9
2000/11/18 02:40,  999.0,  999.0,  999.0,  999.0,  999.0,  999.0,   -0.4,   -0.6,   -1.6,   -1.9,   -3.7,   -2.3,   -2.7,   -2.5,  999.0,  999.0,    2.1,    1.8,    2.3,    2.6,    3.7,    4.5,    4.8,    7.6,    6.8,   10.2,   11.7,   11.9,   14.8,  999.0,   13.8,  999.0,  999.0,  999.0,  999.0,  999.0,  999.0,  999.0,   21.1,  999.0,   21.9,  999.0,  999.0,  999.0,  999.0,  999.0,  999.0,   23.8,   24.2,   24.1,   24.7,   23.2,   23.5,   23.7,   23.7,   26.0,   24.5,  999.0
2000/11/18 02:50,  999.0,    0.7,    0.4,   -0.7,   -5.1,   -0.7,   -1.5,   -1.2,   -1.2,   -2.1,   -3.0,   -2.1,   -2.7,   -2.6,  999.0,  999.0,    0.6,   -1.8,    1.6,    2.8,    6.0,    5.1,    6.7,    6.7,   11.1,   10.1,   10.5,   11.0,   13.1,   13.6,   11.8,   14.1,  999.0,   12.0,  999.0,   14.8,  999.0,  999.0,   17.5,  999.0,  999.0,   24.7,  999.0,  999.0,   24.2,   24.0,   24.9,   26.0,   26.7,   24.5,  999.0,   25.3,   26.2,   26.0,  999.0,   26.1,  999.0,  999.0
2000/11/18 03:00,  999.0,   -1.2,   -0.2,    3.2,    1.6,   -0.7,   -1.9,   -1.0,   -0.7,   -2.9,   -3.7,   -2.5,  999.0,   -1.6,  999.0,  999.0,    0.9,    1.8,    1.4,    2.1,    4.6,    6.0,    7.1,    7.5,  999.0,  999.0,  999.0,   14.7,   15.3,   14.8,  999.0,  999.0,  999.0,   19.8,   21.4,  999.0,   21.2,   22.6,   22.8,   23.0,  999.0,  999.0,  999.0,  999.0,   23.7,   24.2,   25.0,   24.1,   24.8,   25.8,   26.8,  999.0,  999.0,  999.0,   27.1,  999.0,  999.0,  999.0
2000/11/18 03:10,  999.0,  999.0,  999.0,  999.0,    0.6,   -0.1,    0.2,   -0.1,   -1.6,   -2.6,   -2.6,   -2.7,   -2.1,   -2.0,   -2.2,  999.0,    0.2,    0.1,    0.8,  999.0,  999.0,  999.0,  999.0,  999.0,  999.0,    9.2,  999.0,  999.0,   12.5,   14.7,  999.0,   16.8,  999.0,   20.2,   20.0,   18.5,   18.9,   19.6,   21.1,  999.0,  999.0,  999.0,  999.0,  999.0,  999.0,   22.2,   23.4,   24.0,   24.9,   24.1,  999.0,  999.0,  999.0,  999.0,  999.0,   24.0,   23.7,  999.0
2000/11/18 03:20,  999.0,   -1.0,  999.0,  999.0,   -1.5,   -2.6,   -1.6,   -1.5,   -1.0,   -2.2,   -1.9,   -0.6,   -2.1,   -1.8,   -1.9,   -0.9,   -0.6,  999.0,  999.0,  999.0,    6.9,  999.0,  999.0,  999.0,   11.2,  999.0,  999.0,   16.1,   15.4,   14.4,   16.4,  999.0,  999.0,   18.0,   19.5,   19.2,  999.0,   20.2,   21.2,  999.0,  999.0,   25.8,  999.0,  999.0,  999.0,   23.6,   24.4,   24.4,  999.0,  999.0,  999.0,  999.0,  999.0,  999.0,  999.0,  999.0,   22.8,  999.0
2000/11/18 03:30,  999.0,  999.0,   -1.2,   -1.0,   -1.3,   -1.0,   -1.1,   -0.9,   -1.4,   -1.8,   -1.9,   -1.8,   -2.0,   -2.1,   -0.5,   -0.4,    0.8,    0.5,    2.6,    4.8,    6.0,    7.9,  999.0,    9.4,  999.0,  999.0,   10.6,   13.0,   13.6,  999.0,  999.0,   20.9,  999.0,  999.0,   22.1,  999.0,  999.0,  999.0,  999.0,  999.0,   22.8,  999.0,  999.0,  999.0,   23.3,  999.0,  999.0,   25.6,  999.0,  999.0,  999.0,  999.0,   24.6,   25.0,  999.0,  999.0,  999.0,  999.0
2000/11/18 03:40,  999.0,   -4.7,  999.0,   -2.9,   -3.1,   -2.2,   -0.7,   -0.8,   -0.9,   -1.4,   -2.8,   -2.5,   -3.2,   -2.5,   -1.9,   -1.0,  999.0,  999.0,    4.3,    4.7,    5.3,    8.1,  999.0,  999.0,    9.9,   12.4,   14.2,   14.1,  999.0,   17.6,   19.8,  999.0,  999.0,  999.0,  999.0,  999.0,  999.0,   18.9,  999.0,  999.0,  999.0,  999.0,  999.0,  999.0,   23.3,   24.1,  999.0,  999.0,  999.0,  999.0,  999.0,  999.0,   23.4,  999.0,  999.0,  999.0,  999.0,  999.0
2000/11/18 03:50,  999.0,  999.0,  999.0,  999.0,  999.0,   -1.6,   -2.3,   -1.5,   -0.9,  999.0,   -4.3,  999.0,   -1.9,  999.0,  999.0,  999.0,  999.0,   -0.3,    0.2,    3.0,  999.0,  999.0,  999.0,  999.0,  999.0,  999.0,  999.0,  999.0,  999.0,  999.0,  999.0,  999.0,  999.0,  999.0,  999.0,  999.0,  999.0,  999.0,  999.0,  999.0,  999.0,  999.0,  999.0,  999.0,  999.0,  999.0,  999.0,  999.0,  999.0,  999.0,  999.0,  999.0,  999.0,  999.0,  999.0,  999.0,  999.0,  999.0
2000/11/18 04:00,  999.0,   -1.6,   -0.4,   -2.5,   -0.8,   -0.2,    1.1,   -0.4,   -0.5,  999.0,   -3.0,   -2.0,   -1.9,  999.0,  999.0,   -2.2,   -0.7,  999.0,  999.0,  999.0,  999.0,  999.0,  999.0,  999.0,  999.0,  999.0,  999.0,  999.0,  999.0,  999.0,  999.0,  999.0,  999.0,  999.0,  999.0,  999.0,  999.0,  999.0,  999.0,  999.0,  999.0,  999.0,  999.0,  999.0,  999.0,  999.0,  999.0,  999.0,  999.0,  999.0,  999.0,  999.0,  999.0,  999.0,  999.0,  999.0,  999.0,  999.0
2000/11/18 04:10,  999.0,  999.0,   -2.3,   -2.6,   -2.5,   -2.2,   -0.6,   -1.5,   -2.1,   -3.3,   -2.6,  999.0,  999.0,    0.2,  999.0,   -1.4,   -1.3,   -0.4,    0.1,    1.4,    2.5,    3.8,  999.0,  999.0,  999.0,  999.0,  999.0,  999.0,  999.0,  999.0,  999.0,  999.0,  999.0,  999.0,  999.0,   -0.8,   -0.8,  999.0,   -1.2,  999.0,   -0.5,   -0.5,  999.0,  999.0,  999.0,   -1.5,  999.0,  999.0,  999.0,  999.0,  999.0,   -0.5,   -0.0,   -0.6,   -0.4,   -0.9,  999.0,  999.0
2000/11/18 04:20,  999.0,  999.0,   -3.6,   -1.5,    0.2,   -1.0,   -0.7,   -0.3,   -0.6,   -1.6,   -1.3,   -1.7,   -1.6,  999.0,  999.0,   -1.3,   -1.9,   -1.3,   -0.3,   -0.2,    1.4,    1.2,    4.5,  999.0,  999.0,  999.0,  999.0,  999.0,  999.0,  999.0,  999.0,  999.0,   -2.6,  999.0,  999.0,  999.0,  999.0,  999.0,  999.0,  999.0,   -0.6,  999.0,  999.0,   -0.9,  999.0,  999.0,  999.0,  999.0,  999.0,  999.0,  999.0,  999.0,   -1.4,  999.0,  999.0,  999.0,  999.0,  999.0
2000/11/18 04:30,  999.0,   -5.8,  999.0,   -3.1,   -1.0,   -2.7,   -0.7,   -0.2,   -1.9,   -1.1,   -1.8,   -2.0,   -2.0,  999.0,  999.0,   -0.3,   -1.4,   -0.6,   -0.1,    0.3,    2.4,    4.2,    4.5,  999.0,    6.7,    7.7,    9.4,  999.0,  999.0,  999.0,  999.0,  999.0,   -1.2,   -1.3,   -0.4,   -0.5,  999.0,   -1.5,   -0.7,   -1.0,   -1.1,   -0.8,   -0.6,  999.0,   -0.9,   -1.0,  999.0,   -0.4,   -0.4,  999.0,  999.0,   -0.8,   -1.1,   -0.9,   -0.9,   -0.2,  999.0,  999.0
2000/11/18 04:40,  999.0,  999.0,  999.0,  999.0,  999.0,  999.0,   -0.4,    0.5,   -0.2,   -0.5,   -1.8,   -0.2,   -1.4,   -1.6,   -0.4,   -2.3,   -1.3,   -0.3,    0.2,   -0.7,    1.6,    2.3,    4.0,    6.5,    7.4,    8.1,  999.0,   10.1,   11.4,  999.0,  999.0,   15.2,  999.0,  999.0,  999.0,  999.0,   -0.9,  999.0,   -1.6,   -1.1,   -0.6,   -0.9,   -1.1,   -0.5,   -0.3,   -1.2,   -0.1,   -0.1,   -0.3,   -0.5,   -0.4,   -0.9,   -0.7,   -0.8,   -0.7,   -0.3,   -0.2,  999.0
2000/11/18 04:50,  999.0,  999.0,   -3.8,   -1.0,   -1.7,   -0.8,   -1.3,   -1.5,   -1.7,   -1.5,   -2.2,   -1.3,    0.1,  999.0,   -0.2,  999.0,   -2.7,   -3.1,   -2.3,   -0.9,  999.0,    1.4,    3.1,    5.0,    8.4,    4.0,    7.5,    5.7,    8.9,    6.1,  999.0,   12.3,  999.0,  999.0,  999.0,  999.0,  999.0,   -1.2,  999.0,  999.0,   -0.6,  999.0,  999.0,   -0.7,  999.0,  999.0,   -1.3,   -0.5,  999.0,  999.0,   -0.3,  999.0,  999.0,  999.0,  999.0,   -0.6,  999.0,  999.0
2000/11/18 05:00,  999.0,  999.0,   -1.2,   -2.5,   -1.8,   -2.5,   -1.3,   -0.8,   -0.3,   -1.6,  999.0,  999.0,  999.0,   -1.4,   -2.5,   -2.1,   -2.1,   -1.3,    0.5,    1.6,  999.0,  999.0,    6.3,  999.0,    6.4,    8.8,   10.0,  999.0,   12.0,   11.4,  999.0,   13.5,  999.0,  999.0,  999.0,  999.0,  999.0,  999.0,  999.0,  999.0,  999.0,  999.0,  999.0,  999.0,  999.0,  999.0,  999.0,  999.0,  999.0,  999.0,  999.0,  999.0,  999.0,  999.0,  999.0,  999.0,  999.0,   23.7
2000/11/18 05:10,  999.0,  999.0,   -1.9,    0.1,  999.0,  999.0,   -2.5,  999.0,   -1.7,   -1.7,   -1.6,  999.0,   -0.6,   -3.2,  999.0,  999.0,  999.0,  999.0,  999.0,  999.0,  999.0,    3.1,    2.1,    9.6,  999.0,    6.9,  999.0,   15.2,   13.1,  999.0,  999.0,   18.6,  999.0,  999.0,  999.0,  999.0,  999.0,  999.0,  999.0,  999.0,  999.0,  999.0,  999.0,  999.0,  999.0,  999.0,  999.0,  999.0,  999.0,  999.0,  999.0,  999.0,  999.0,  999.0,  999.0,  999.0,  999.0,  999.0
2000/11/18 05:20,  999.0,   -0.4,   -2.8,   -0.4,   -0.8,  999.0,   -0.5,   -1.1,   -1.6,   -1.9,  999.0,  999.0,   -3.8,   -3.2,   -2.7,   -2.1,  999.0,  999.0,  999.0,    1.4,    0.1,    3.0,  999.0,  999.0,    6.1,  999.0,   11.1,  999.0,   13.0,   15.9,  999.0,  999.0,  999.0,  999.0,  999.0,  999.0,  999.0,  999.0,  999.0,  999.0,  999.0,  999.0,  999.0,  999.0,  999.0,  999.0,  999.0,  999.0,   21.9,  999.0,   20.6,  999.0,  999.0,  999.0,  999.0,  999.0,  999.0,  999.0
2000/11/18 05:30,  999.0,    1.2,   -0.8,   -1.7,   -2.4,   -0.1,  999.0,   -0.8,   -0.8,   -1.9,    0.2,  999.0,   -2.1,   -1.8,   -2.2,   -2.0,   -1.1,   -0.1,    1.3,    2.8,    3.5,    4.2,    8.3,  999.0,  999.0,  999.0,   12.2,  999.0,   13.8,  999.0,  999.0,  999.0,  999.0,  999.0,  999.0,  999.0,  999.0,  999.0,  999.0,  999.0,  999.0,  999.0,  999.0,  999.0,  999.0,  999.0,  999.0,  999.0,   23.2,  999.0,  999.0,  999.0,  999.0,  999.0,  999.0,  999.0,  999.0,  999.0
2000/11/18 05:40,  999.0,  999.0,   -2.8,  999.0,   -0.6,    1.0,  999.0,   -0.8,   -1.2,   -1.3,   -1.3,   -2.0,   -2.7,   -2.5,   -2.2,   -2.8,   -0.6,    1.2,    1.5,    2.9,    3.4,    4.9,  999.0,  999.0,  999.0,  999.0,  999.0,  999.0,  999.0,  999.0,  999.0,  999.0,  999.0,  999.0,  999.0,  999.0,  999.0,  999.0,  999.0,  999.0,  999.0,  999.0,   22.3,   21.7,   22.0,   22.5,   22.7,   23.5,   22.8,  999.0,  999.0,  999.0,  999.0,  999.0,  999.0,  999.0,  999.0,  999.0
2000/11/18 05:50,  999.0,  999.0,  999.0,   -1.2,   -2.7,  999.0,    0.8,    0.2,   -2.1,   -2.5,   -3.4,   -2.7,   -2.5,   -2.8,   -3.1,   -2.5,   -2.9,  999.0,    2.6,    2.9,    3.1,    7.7,  999.0,  999.0,   10.3,   10.4,   12.1,   15.2,  999.0,  999.0,  999.0,  999.0,  999.0,  999.0,  999.0,  999.0,  999.0,  999.0,  999.0,  999.0,  999.0,  999.0,   21.9,   21.9,   22.3,   22.9,   21.2,   22.3,   20.4,   21.4,  999.0,  999.0,  999.0,  999.0,  999.0,  999.0,  999.0,  999.0
2000/11/18 06:00,  999.0,  999.0,   -0.3,    0.2,  999.0,   -2.1,  999.0,   -2.0,   -2.4,   -3.7,   -3.1,   -2.9,   -3.3,   -3.7,   -4.4,   -3.6,   -1.4,    1.1,  999.0,  999.0,  999.0,  999.0,  999.0,    7.0,    8.2,   11.0,  999.0,  999.0,  999.0,   14.2,  999.0,  999.0,  999.0,  999.0,  999.0,  999.0,  999.0,   20.3,  999.0,  999.0,  999.0,  999.0,  999.0,  999.0,  999.0,  999.0,  999.0,  999.0,  999.0,  999.0,   20.9,   20.8,   21.6,  999.0,  999.0,  999.0,  999.0,  999.0
2000/11/18 06:10,  999.0,  999.0,  999.0,   -3.3,  999.0,  999.0,   -1.1,   -2.1,   -3.8,   -4.7,   -2.5,   -4.0,   -4.8,   -4.5,   -3.2,   -4.0,   -2.3,  999.0,    2.2,    3.9,    4.6,  999.0,    9.2,  999.0,   12.1,   14.5,   14.3,   18.5,  999.0,  999.0,  999.0,  999.0,  999.0,  999.0,  999.0,  999.0,  999.0,  999.0,  999.0,  999.0,  999.0,  999.0,  999.0,  999.0,  999.0,  999.0,  999.0,  999.0,  999.0,   19.9,   20.6,  999.0,   21.2,  999.0,  999.0,  999.0,  999.0,  999.0
2000/11/18 06:20,  999.0,   -0.4,   -0.4,    0.6,   -0.8,   -0.4,   -0.8,   -0.9,   -1.0,   -1.7,   -3.5,   -3.0,   -3.6,   -3.0,   -2.4,   -0.7,    1.5,    1.6,    2.9,  999.0,  999.0,    7.7,  999.0,   13.6,   15.2,   16.6,   17.3,   20.0,   17.7,   14.5,  999.0,  999.0,  999.0,  999.0,  999.0,  999.0,  999.0,  999.0,  999.0,  999.0,  999.0,  999.0,  999.0,  999.0,  999.0,  999.0,  999.0,  999.0,   22.7,  999.0,  999.0,  999.0,  999.0,  999.0,  999.0,  999.0,  999.0,  999.0
2000/11/18 06:30,  999.0,    2.1,    0.1,   -0.6,    0.7,   -0.2,  999.0,   -0.0,   -0.4,   -0.7,   -1.8,   -3.4,   -2.6,   -5.0,   -4.4,   -3.5,   -2.3,   -2.1,    1.8,    4.3,  999.0,  999.0,  999.0,  999.0,   12.7,   16.7,  999.0,   17.7,   19.5,  999.0,  999.0,  999.0,  999.0,  999.0,  999.0,  999.0,  999.0,  999.0,  999.0,  999.0,  999.0,  999.0,  999.0,  999.0,  999.0,  999.0,  999.0,  999.0,  999.0,  999.0,  999.0,  999.0,  999.0,  999.0,  999.0,  999.0,  999.0,  999.0
2000/11/18 06:40,  999.0,    0.2,    0.0,    0.5,    3.0,   -0.1,   -0.6,   -1.4,   -0.8,   -0.7,   -0.7,   -0.6,   -2.3,   -3.8,   -3.6,   -3.4,   -1.8,   -0.2,    1.6,    1.6,  999.0,  999.0,    9.7,  999.0,  999.0,   13.5,  999.0,  999.0,  999.0,  999.0,  999.0,  999.0,  999.0,  999.0,  999.0,  999.0,  999.0,  999.0,  999.0,  999.0,  999.0,  999.0,  999.0,  999.0,  999.0,  999.0,  999.0,  999.0,  999.0,  999.0,  999.0,  999.0,  999.0,  999.0,  999.0,  999.0,  999.0,  999.0
2000/11/18 06:50,  999.0,   -0.4,    0.6,    0.2,    0.2,   -0.5,   -0.8,   -0.3,   -0.9,   -2.9,  999.0,   -5.4,   -4.4,   -5.5,   -4.3,   -4.5,   -3.8,   -2.9,   -0.6,  999.0,  999.0,    9.2,  999.0,  999.0,  999.0,   15.9,  999.0,  999.0,  999.0,  999.0,  999.0,  999.0,  999.0,  999.0,  999.0,  999.0,  999.0,  999.0,  999.0,  999.0,  999.0,  999.0,  999.0,  999.0,  999.0,  999.0,  999.0,  999.0,  999.0,  999.0,  999.0,  999.0,  999.0,  999.0,  999.0,  999.0,  999.0,  999.0
2000/11/18 07:00,  999.0,    0.2,    0.5,    1.8,    1.2,    0.2,    0.2,    0.2,   -0.7,   -0.1,   -4.4,   -4.3,   -3.4,   -4.9,   -4.1,   -3.5,   -2.8,   -1.7,    1.5,  999.0,  999.0,  999.0,   10.8,  999.0,  999.0,   17.9,  999.0,  999.0,  999.0,  999.0,  999.0,  999.0,  999.0,  999.0,  999.0,  999.0,  999.0,  999.0,  999.0,  999.0,  999.0,  999.0,  999.0,  999.0,  999.0,  999.0,  999.0,  999.0,  999.0,  999.0,  999.0,  999.0,  999.0,  999.0,  999.0,  999.0,  999.0,  999.0
2000/11/18 07:10,  999.0,    0.7,    0.6,    1.9,   -0.3,    1.0,   -0.3,   -0.2,   -3.0,   -3.6,   -3.6,   -3.7,   -4.8,   -3.3,   -3.0,   -2.7,   -2.9,   -2.8,  999.0,  999.0,  999.0,  999.0,    9.9,   11.4,   13.2,  999.0,  999.0,  999.0,  999.0,  999.0,  999.0,  999.0,  999.0,  999.0,  999.0,  999.0,  999.0,  999.0,  999.0,  999.0,  999.0,  999.0,  999.0,  999.0,  999.0,  999.0,  999.0,  999.0,  999.0,  999.0,  999.0,  999.0,  999.0,  999.0,  999.0,  999.0,  999.0,  999.0
2000/11/18 07:20,  999.0,    0.9,    0.9,   -0.1,   -0.8,   -0.6,   -0.5,  999.0,   -3.5,   -3.5,   -4.9,   -4.3,   -4.0,   -3.8,   -3.7,   -3.2,   -3.1,   -2.2,    0.1,  999.0,  999.0,    4.4,   11.6,  999.0,  999.0,  999.0,  999.0,  999.0,  999.0,  999.0,  999.0,  999.0,  999.0,  999.0,  999.0,  999.0,  999.0,  999.0,  999.0,  999.0,  999.0,  999.0,  999.0,  999.0,  999.0,  999.0,  999.0,  999.0,  999.0,  999.0,  999.0,  999.0,  999.0,  999.0,  999.0,  999.0,  999.0,  999.0
2000/11/18 07:30,  999.0,    0.2,    0.4,   -1.8,   -0.2,    0.1,   -0.2,    1.1,   -5.3,   -0.9,   -3.3,   -2.4,   -2.5,   -2.8,   -2.5,   -3.1,   -1.9,   -1.3,    6.5,  999.0,    5.1,    9.6,   13.2,   14.8,  999.0,   21.3,  999.0,  999.0,  999.0,  999.0,  999.0,  999.0,  999.0,  999.0,  999.0,  999.0,  999.0,  999.0,  999.0,  999.0,  999.0,  999.0,  999.0,  999.0,  999.0,  999.0,  999.0,  999.0,  999.0,  999.0,  999.0,  999.0,  999.0,  999.0,  999.0,  999.0,  999.0,  999.0
2000/11/18 07:40,  999.0,    0.3,    0.3,    0.6,   -0.6,   -0.7,   -0.0,   -0.0,   -0.0,   -1.1,   -4.0,   -3.9,   -4.2,   -2.5,   -1.1,   -0.6,    2.6,  999.0,  999.0,  999.0,  999.0,   14.0,  999.0,  999.0,  999.0,  999.0,  999.0,  999.0,  999.0,  999.0,  999.0,  999.0,  999.0,  999.0,  999.0,  999.0,  999.0,  999.0,  999.0,  999.0,  999.0,  999.0,  999.0,  999.0,  999.0,  999.0,  999.0,  999.0,  999.0,  999.0,  999.0,  999.0,  999.0,  999.0,  999.0,  999.0,  999.0,  999.0
2000/11/18 07:50,  999.0,    0.7,    0.3,    0.0,    0.6,   -0.3,    0.2,    0.0,   -3.2,    1.6,   -3.2,   -3.4,   -1.3,    0.7,    2.1,   -0.2,    0.2,  999.0,  999.0,  999.0,  999.0,  999.0,  999.0,  999.0,  999.0,  999.0,  999.0,  999.0,  999.0,  999.0,  999.0,  999.0,  999.0,  999.0,  999.0,  999.0,  999.0,  999.0,  999.0,  999.0,  999.0,  999.0,  999.0,  999.0,  999.0,  999.0,  999.0,  999.0,  999.0,  999.0,  999.0,  999.0,  999.0,  999.0,  999.0,  999.0,  999.0,  999.0
2000/11/18 08:00,  999.0,  999.0,    0.2,   -0.9,   -1.4,   -0.2,    0.5,    3.6,    1.2,  999.0,   -1.2,  999.0,   -2.4,  999.0,   -2.1,  999.0,  999.0,   -0.8,  999.0,    4.6,  999.0,  999.0,  999.0,  999.0,  999.0,  999.0,  999.0,  999.0,  999.0,  999.0,  999.0,  999.0,  999.0,  999.0,  999.0,  999.0,  999.0,  999.0,  999.0,  999.0,  999.0,  999.0,  999.0,  999.0,  999.0,  999.0,  999.0,  999.0,  999.0,  999.0,  999.0,  999.0,  999.0,  999.0,  999.0,  999.0,  999.0,  999.0
2000/11/18 08:10,  999.0,    1.9,   -0.0,    0.5,   -0.9,    0.9,    0.0,   -0.3,   -0.7,   -1.4,   -1.0,    0.8,  999.0,   -1.1,  999.0,  999.0,    0.6,  999.0,    2.5,  999.0,  999.0,  999.0,  999.0,  999.0,  999.0,  999.0,  999.0,  999.0,  999.0,  999.0,  999.0,  999.0,  999.0,  999.0,  999.0,  999.0,  999.0,  999.0,  999.0,  999.0,  999.0,  999.0,  999.0,  999.0,  999.0,  999.0,  999.0,  999.0,  999.0,  999.0,  999.0,  999.0,  999.0,  999.0,  999.0,  999.0,  999.0,  999.0
2000/11/18 08:20,  999.0,    1.9,    1.7,    1.2,    0.2,    0.7,    1.2,    0.9,  999.0,   -4.1,   -0.8,   -0.6,   -0.4,   -2.0,   -2.6,   -2.8,   -3.2,    0.0,   -0.3,    1.8,    6.7,  999.0,  999.0,  999.0,  999.0,  999.0,  999.0,  999.0,  999.0,  999.0,  999.0,  999.0,  999.0,  999.0,  999.0,  999.0,  999.0,  999.0,  999.0,  999.0,  999.0,  999.0,  999.0,  999.0,  999.0,  999.0,  999.0,  999.0,  999.0,  999.0,  999.0,  999.0,  999.0,  999.0,  999.0,  999.0,  999.0,  999.0
2000/11/18 08:30,  999.0,  999.0,   -0.2,   -0.2,   -0.3,   -0.0,   -0.2,    1.3,    0.6,   -2.7,   -1.3,   -1.3,   -0.1,  999.0,   -2.1,   -3.5,   -1.0,    0.8,   -0.2,    4.5,    8.2,  999.0,    7.6,  999.0,  999.0,  999.0,  999.0,  999.0,  999.0,  999.0,  999.0,  999.0,  999.0,  999.0,  999.0,  999.0,  999.0,  999.0,  999.0,  999.0,  999.0,  999.0,  999.0,  999.0,  999.0,  999.0,  999.0,  999.0,  999.0,  999.0,  999.0,  999.0,  999.0,  999.0,  999.0,  999.0,  999.0,  999.0
2000/11/18 08:40,  999.0,   -0.4,   -2.6,   -0.5,    1.2,   -2.2,    0.9,   -1.2,   -0.9,   -3.3,   -0.9,   -2.3,   -1.4,  999.0,   -2.5,   -3.2,   -0.6,    0.3,    0.5,    3.6,  999.0,  999.0,  999.0,  999.0,  999.0,  999.0,  999.0,  999.0,  999.0,  999.0,  999.0,  999.0,  999.0,  999.0,  999.0,  999.0,  999.0,  999.0,  999.0,  999.0,  999.0,  999.0,  999.0,  999.0,  999.0,  999.0,  999.0,  999.0,  999.0,  999.0,  999.0,  999.0,  999.0,  999.0,  999.0,  999.0,  999.0,  999.0
2000/11/18 08:50,  999.0,    3.1,  999.0,  999.0,    0.1,   -2.0,   -0.1,  999.0,   -1.1,   -5.3,   -0.9,    0.5,   -1.2,   -4.3,   -2.3,   -4.8,   -1.3,    1.1,  999.0,    1.9,  999.0,  999.0,  999.0,  999.0,  999.0,  999.0,  999.0,  999.0,  999.0,  999.0,  999.0,  999.0,  999.0,  999.0,  999.0,  999.0,  999.0,  999.0,  999.0,  999.0,  999.0,  999.0,  999.0,  999.0,  999.0,  999.0,  999.0,  999.0,  999.0,  999.0,  999.0,  999.0,  999.0,  999.0,  999.0,  999.0,  999.0,  999.0
2000/11/18 09:00,  999.0,  999.0,   -6.1,   -2.9,    0.2,    1.2,   -0.1,    0.7,   -2.5,   -1.4,   -0.0,   -1.1,   -0.4,   -2.0,   -1.0,  999.0,    0.4,   -1.9,    1.6,  999.0,  999.0,  999.0,  999.0,  999.0,  999.0,  999.0,  999.0,  999.0,  999.0,  999.0,  999.0,  999.0,  999.0,  999.0,  999.0,  999.0,  999.0,  999.0,  999.0,  999.0,  999.0,  999.0,  999.0,  999.0,  999.0,  999.0,  999.0,  999.0,  999.0,  999.0,  999.0,  999.0,  999.0,  999.0,  999.0,  999.0,  999.0,  999.0
2000/11/18 09:10,  999.0,   -1.4,   -2.0,   -0.8,    1.3,    1.9,    0.4,    0.9,   -0.2,   -1.0,   -0.3,   -0.6,   -2.8,   -2.4,   -2.1,   -1.1,    0.8,   -0.4,  999.0,  999.0,  999.0,  999.0,  999.0,  999.0,  999.0,  999.0,  999.0,  999.0,  999.0,  999.0,  999.0,  999.0,  999.0,  999.0,  999.0,  999.0,  999.0,  999.0,  999.0,  999.0,  999.0,  999.0,  999.0,  999.0,  999.0,  999.0,  999.0,  999.0,  999.0,  999.0,  999.0,  999.0,  999.0,  999.0,  999.0,  999.0,  999.0,  999.0
2000/11/18 09:20,  999.0,   -1.0,   -0.5,    0.2,    0.2,   -0.7,   -2.5,  999.0,    0.4,   -2.6,   -2.5,   -2.7,   -2.1,   -1.2,   -0.7,   -0.7,   -1.9,  999.0,  999.0,  999.0,  999.0,  999.0,  999.0,  999.0,  999.0,  999.0,  999.0,  999.0,  999.0,  999.0,  999.0,  999.0,  999.0,  999.0,  999.0,  999.0,  999.0,  999.0,  999.0,  999.0,  999.0,  999.0,  999.0,  999.0,  999.0,  999.0,  999.0,  999.0,  999.0,  999.0,  999.0,  999.0,  999.0,  999.0,  999.0,  999.0,  999.0,  999.0
2000/11/18 09:30,  999.0,   -1.9,   -0.8,   -0.8,   -0.5,   -2.0,   -0.4,   -1.0,   -1.0,   -1.5,   -2.0,   -2.4,   -2.3,   -1.5,  999.0,    0.2,    2.1,    0.5,  999.0,  999.0,  999.0,  999.0,  999.0,  999.0,  999.0,  999.0,  999.0,  999.0,  999.0,  999.0,  999.0,  999.0,  999.0,  999.0,  999.0,  999.0,  999.0,  999.0,  999.0,  999.0,  999.0,  999.0,  999.0,  999.0,  999.0,  999.0,  999.0,  999.0,  999.0,  999.0,  999.0,  999.0,  999.0,  999.0,  999.0,  999.0,  999.0,  999.0
2000/11/18 09:40,  999.0,  999.0,    0.1,   -0.7,    0.1,   -0.0,   -1.4,   -1.4,   -1.2,   -0.6,    0.5,   -3.0,   -4.0,   -0.7,   -1.5,   -1.1,  999.0,  999.0,    0.8,  999.0,  999.0,  999.0,  999.0,  999.0,  999.0,  999.0,  999.0,  999.0,  999.0,  999.0,  999.0,  999.0,  999.0,  999.0,  999.0,  999.0,  999.0,  999.0,  999.0,  999.0,  999.0,  999.0,  999.0,  999.0,  999.0,  999.0,  999.0,  999.0,  999.0,  999.0,  999.0,  999.0,  999.0,  999.0,  999.0,  999.0,  999.0,  999.0
2000/11/18 09:50,  999.0,    3.3,    5.1,    2.8,    0.5,   -1.8,   -0.9,   -1.4,   -2.8,   -2.9,   -3.4,   -2.9,   -0.8,   -0.6,   -0.6,   -0.3,   -0.1,    1.8,    2.6,  999.0,  999.0,  999.0,  999.0,  999.0,  999.0,  999.0,  999.0,  999.0,  999.0,  999.0,  999.0,  999.0,  999.0,  999.0,  999.0,  999.0,   19.6,   19.8,   21.2,  999.0,  999.0,  999.0,  999.0,  999.0,  999.0,  999.0,  999.0,  999.0,  999.0,  999.0,  999.0,  999.0,  999.0,  999.0,  999.0,  999.0,  999.0,  999.0
2000/11/18 10:00,  999.0,    0.9,   -1.1,    0.0,   -0.6,   -0.7,   -1.1,   -2.4,   -2.6,   -1.7,   -0.6,   -1.2,   -0.2,  999.0,    0.5,  999.0,    2.3,    0.3,  999.0,  999.0,  999.0,  999.0,  999.0,  999.0,  999.0,  999.0,  999.0,  999.0,  999.0,  999.0,  999.0,  999.0,  999.0,  999.0,  999.0,  999.0,  999.0,  999.0,  999.0,   -0.9,  999.0,  999.0,  999.0,  999.0,  999.0,  999.0,  999.0,  999.0,  999.0,  999.0,  999.0,  999.0,  999.0,  999.0,  999.0,  999.0,  999.0,  999.0
2000/11/18 10:10,  999.0,   -0.5,   -1.7,   -1.2,   -1.0,   -2.2,   -2.4,   -4.4,   -4.3,   -2.2,   -3.0,   -1.0,   -2.6,  999.0,   -2.1,   -1.8,   -0.5,    1.3,  999.0,  999.0,  999.0,  999.0,  999.0,  999.0,  999.0,  999.0,  999.0,  999.0,  999.0,  999.0,  999.0,  999.0,  999.0,  999.0,  999.0,  999.0,  999.0,  999.0,  999.0,  999.0,  999.0,  999.0,  999.0,  999.0,  999.0,  999.0,  999.0,  999.0,  999.0,  999.0,  999.0,  999.0,  999.0,  999.0,  999.0,  999.0,  999.0,  999.0
2000/11/18 10:20,  999.0,   -3.1,   -1.8,   -2.0,   -2.7,   -2.1,   -1.1,   -1.5,   -1.8,   -1.6,   -1.7,   -1.1,   -2.4,   -2.5,   -2.5,    0.1,    1.6,    2.4,    4.9,    6.1,  999.0,  999.0,  999.0,   15.5,  999.0,  999.0,  999.0,   22.5,  999.0,  999.0,  999.0,  999.0,  999.0,  999.0,  999.0,  999.0,  999.0,  999.0,  999.0,  999.0,  999.0,  999.0,  999.0,  999.0,  999.0,  999.0,  999.0,  999.0,  999.0,  999.0,  999.0,  999.0,  999.0,  999.0,  999.0,  999.0,  999.0,  999.0
2000/11/18 10:30,  999.0,   -0.9,   -1.7,   -1.5,   -1.4,   -1.3,   -0.8,   -2.5,   -0.8,   -0.9,  999.0,   -1.1,   -1.5,   -1.5,   -0.3,    1.0,    2.4,    4.8,    5.6,    7.3,  999.0,   10.9,   12.8,   14.6,   16.9,  999.0,  999.0,   18.6,  999.0,  999.0,  999.0,  999.0,  999.0,  999.0,  999.0,  999.0,  999.0,  999.0,  999.0,  999.0,  999.0,  999.0,  999.0,  999.0,  999.0,  999.0,  999.0,  999.0,  999.0,  999.0,  999.0,  999.0,  999.0,  999.0,  999.0,  999.0,  999.0,  999.0
2000/11/18 10:40,  999.0,   -1.9,   -2.5,   -1.8,   -3.2,   -2.1,   -1.5,   -1.7,   -1.6,   -1.9,    0.6,   -1.3,   -1.7,    2.0,    4.0,    5.1,    6.2,    9.1,    7.5,    9.8,   14.3,   14.8,   15.4,   16.1,  999.0,  999.0,  999.0,  999.0,  999.0,  999.0,  999.0,   -0.5,   -0.8,   -0.6,   -0.6,  999.0,  999.0,   18.9,  999.0,  999.0,  999.0,  999.0,  999.0,  999.0,  999.0,  999.0,  999.0,  999.0,  999.0,  999.0,  999.0,  999.0,  999.0,  999.0,  999.0,  999.0,  999.0,  999.0
2000/11/18 10:50,  999.0,    3.0,    1.1,    1.1,   -0.5,    0.1,   -1.4,   -1.4,   -1.0,   -1.0,  999.0,    3.1,    1.4,    2.6,    5.2,    7.8,    8.7,   11.0,   13.2,   16.7,   22.8,   22.4,   19.0,   18.4,   21.0,  999.0,   21.0,  999.0,   19.4,  999.0,  999.0,  999.0,  999.0,  999.0,  999.0,  999.0,  999.0,  999.0,  999.0,  999.0,  999.0,  999.0,  999.0,  999.0,  999.0,  999.0,  999.0,  999.0,  999.0,  999.0,  999.0,   20.0,  999.0,   -1.1,  999.0,   -0.7,  999.0,   -0.6
2000/11/18 11:00,  999.0,    1.5,   -0.2,   -0.5,   -1.7,   -1.9,   -1.9,   -1.4,   -1.6,   -0.9,    0.6,    2.5,    4.5,    6.4,    8.2,   10.8,   13.9,   16.9,   18.1,   19.5,  999.0,  999.0,  999.0,   22.5,  999.0,   21.2,   10.2,   19.4,  999.0,  999.0,   -0.8,   -1.3,  999.0,   -0.5,  999.0,  999.0,  999.0,   -0.6,  999.0,  999.0,   -0.9,   -0.5,  999.0,  999.0,  999.0,  999.0,  999.0,  999.0,   20.4,   20.6,   -0.5,  999.0,   -0.9,   20.7,  999.0,    9.8,   -0.5,   10.2
2000/11/18 11:10,  999.0,  999.0,   -0.7,   -2.8,   -2.7,   -1.5,   -0.3,    0.0,    0.6,    1.0,    2.6,    3.9,    4.4,    6.7,    7.1,    9.3,  999.0,  999.0,   -1.3,  999.0,   -0.9,   -0.4,   -0.8,   -0.8,   -0.8,   -0.9,   -0.5,   -1.1,   -0.7,   -1.0,   -1.0,   -0.3,   -0.7,   -0.6,   -0.6,   -0.7,   -0.6,   -0.7,   -0.3,   -0.6,  999.0,  999.0,   -0.8,  999.0,   -1.0,   -0.9,   -0.6,   -0.6,   -0.6,   -0.8,   -1.2,   -1.2,   -1.1,   -0.8,   -0.6,   -0.7,   -1.0,   -0.7
2000/11/18 11:20,  999.0,   -2.4,   -2.1,    0.0,   -0.9,   -1.3,   -1.4,   -0.4,    0.1,    0.3,    0.4,    2.8,    5.8,    8.2,   10.7,  999.0,  999.0,  999.0,  999.0,  999.0,  999.0,   -0.2,   -0.5,   -0.8,   -1.0,   -0.2,   -1.0,   -0.9,   -1.0,  -20.0,  -11.1,  999.0,  -10.8,   -0.4,   -0.7,   -0.6,   -0.9,   -2.4,   -3.5,  -13.5,   -0.2,   -1.1,  -13.7,   -0.6,   -0.6,   -0.7,   -0.6,   -6.6,   -1.3,   -2.5,   -7.5,   -0.5,   -7.0,   -5.3,   -0.5,   -0.4,   -0.7,   -0.3
2000/11/18 11:30,  999.0,    0.2,   -0.9,    0.7,   -2.8,    1.1,    0.7,   -0.0,   -1.3,   -2.3,   -1.2,   -0.8,   -1.6,   -1.1,   -1.0,    0.2,    1.0,    4.0,  999.0,   -0.5,   -0.6,   -0.4,  999.0,   -1.6,   -0.7,   -0.7,   -0.9,   -0.0,   -0.9,   -0.6,   -0.4,   -0.9,  999.0,   -0.7,   -0.6,   -0.8,   -0.5,   -0.5,   -0.5,   -1.3,   -0.8,   -1.0,   -0.1,   -0.5,   -0.3,   -1.2,   -0.5,   -0.9,  999.0,   -0.4,   -0.6,   -0.7,   -0.9,  999.0,   -1.0,   -1.4,   -1.0,   -0.9
2000/11/18 11:40,  999.0,    1.6,   -0.2,    2.9,    0.0,   -0.6,   -0.0,   -0.5,   -0.1,   -0.7,   -0.9,   -0.8,    0.2,    0.6,    4.4,    3.8,  999.0,  999.0,  999.0,   22.0,   17.2,  999.0,  999.0,  999.0,  999.0,   -0.8,   10.3,  999.0,   -0.5,  999.0,  -10.2,   -3.6,  999.0,  -21.4,  999.0,    8.2,  -12.5,  -11.1,  -20.6,   -7.8,  -12.7,   -0.0,   -0.8,   -3.4,  -10.7,   -7.5,   -9.8,   -1.0,   -6.5,   10.0,   -0.6,   -1.0,  999.0,    2.3,   -0.5,   -0.8,   -0.4,   -0.5
2000/11/18 11:50,  999.0,    0.9,    2.1,    0.4,   -1.0,   -1.2,   -0.2,    0.7,    1.1,    0.6,   -0.1,   -0.2,    0.1,   -0.5,    0.9,    3.5,    4.6,    5.0,    7.9,    9.9,   11.5,  999.0,   18.5,  999.0,  999.0,  999.0,  999.0,   -0.1,   19.1,   15.6,   18.5,   18.2,  999.0,   16.6,   15.6,  999.0,   -1.0,   -0.6,   -1.1,  999.0,  999.0,  999.0,   -0.7,  999.0,   -0.8,   -0.5,   -1.3,   -0.7,   -1.0,   -1.4,   -0.8,   -1.1,   -0.8,   -0.7,   -0.7,   -0.6,   -1.1,   -0.5
2000/11/18 12:00,  999.0,   -0.3,   -0.9,   -1.9,   -0.9,    0.1,   -2.5,   -1.4,    1.2,    1.7,    2.2,    2.7,    3.6,    2.8,    2.0,    3.5,    4.0,    7.3,   12.2,   14.3,  999.0,  999.0,  999.0,  999.0,  999.0,   -1.1,  999.0,  999.0,  999.0,  999.0,   -1.4,   20.7,   10.4,    9.7,    9.9,    9.3,   -0.5,   -0.4,   -0.5,   -0.6,  999.0,   -0.6,   -0.8,   -0.9,   -0.9,   -0.9,   -0.7,   -0.5,   -3.5,  -13.8,  999.0,  -18.3,   -4.1,  -10.2,   -0.5,   -0.6,  999.0,   -0.7
2000/11/18 12:10,  999.0,   -2.1,   -1.8,   -0.9,   -0.7,   -0.7,   -0.4,   -0.5,   -0.5,   -0.7,   -0.7,   -0.9,   -1.5,   -2.1,   -1.4,   -0.5,    0.8,    6.8,    6.4,    7.9,    5.7,   14.3,  999.0,  999.0,   -0.7,   -0.7,   -0.7,   -0.8,   -0.6,  999.0,   22.5,   -0.2,   -1.1,   -0.4,    4.9,   -0.9,    5.2,   -0.8,   -0.6,   -0.7,   -0.9,   -0.5,   -0.2,   -1.0,   -0.7,   -0.6,   -0.7,   -9.7,   -1.0,   -0.4,   -0.2,   -0.8,   -0.4,   -0.2,   -0.5,  -10.5,   -1.0,   -0.8
2000/11/18 12:20,  999.0,   -1.5,    0.1,   -1.2,   -1.4,    2.2,   -2.9,   -0.8,   -1.9,   -0.1,    0.1,   -0.0,   -1.3,   -1.2,   -0.1,    0.6,    1.7,    1.5,    2.0,    2.6,    1.0,    0.6,    3.3,  999.0,  999.0,  999.0,   24.5,    9.9,  999.0,  999.0,   28.9,  999.0,  999.0,  999.0,  999.0,  999.0,   10.9,   21.9,  999.0,  999.0,  999.0,  999.0,  999.0,  999.0,  999.0,  999.0,  999.0,  999.0,   28.3,   12.5,   23.6,  999.0,   20.0,   -0.7,    6.9,   16.5,    4.4,   14.4
2000/11/18 12:30,  999.0,   -1.9,   -2.0,   -2.0,   -1.3,   -1.0,   -0.7,   -0.5,   -0.4,    0.5,    0.6,    0.1,    0.4,    0.8,    0.7,   -0.1,   -0.1,    2.7,    5.6,    7.5,    8.2,    7.9,  999.0,  999.0,  999.0,  999.0,  999.0,   13.2,  999.0,   -3.8,  999.0,    8.2,   16.0,   17.4,  999.0,  999.0,   18.7,   20.0,  999.0,  999.0,  999.0,  999.0,  999.0,  999.0,   20.5,   20.9,  999.0,  999.0,  999.0,  999.0,  999.0,  999.0,  999.0,  999.0,  999.0,  999.0,  999.0,  999.0
2000/11/18 12:40,  999.0,   -1.6,   -1.3,   -0.9,   -0.4,   -1.1,   -0.8,   -0.6,   -0.1,   -0.6,   -0.4,   -0.1,    0.5,    1.3,    2.1,    3.3,    3.9,    4.5,    4.6,    4.7,    5.0,    6.0,    7.4,    8.0,   -2.8,  999.0,  999.0,  999.0,  999.0,  999.0,  999.0,   -6.3,  999.0,  999.0,  999.0,  999.0,  999.0,  999.0,  999.0,  999.0,   -0.7,  999.0,  999.0,   10.9,   -0.0,  999.0,  -28.0,  -12.6,  -20.6,    0.5,  999.0,  999.0,  -20.8,  -11.9,  -10.9,  -20.6,  999.0,  -21.4
2000/11/18 12:50,  999.0,  999.0,   -3.1,    1.5,   -0.2,   -1.8,   -2.6,   -1.9,   -1.2,   -0.6,   -0.6,   -1.2,   -1.7,   -0.3,    0.7,   -0.6,   -1.7,   -2.9,   -4.1,   -5.7,   -6.7,   -6.3,   -6.2,    1.0,    1.2,   23.6,  -26.5,  -18.9,  999.0,  999.0,  999.0,   23.0,    9.1,    9.1,   23.2,    5.7,   22.7,  999.0,   -0.3,  999.0,  999.0,  999.0,  999.0,  -25.9,  999.0,  999.0,  -21.3,  999.0,  -21.3,  999.0,  999.0,  999.0,  999.0,  999.0,  -21.2,  -21.1,   -1.1,  999.0
2000/11/18 13:00,  999.0,  999.0,   -0.9,   -2.2,   -1.2,   -0.9,   -1.0,   -0.5,    0.1,    1.4,    2.4,    1.8,    1.4,    2.4,    4.1,    5.7,    6.9,    8.6,   10.5,   13.2,   15.1,   17.0,   17.4,   18.9,   19.4,   20.0,   19.5,   19.8,  999.0,   23.5,   24.1,   23.0,   24.6,   24.3,   24.8,  999.0,  999.0,  999.0,  999.0,   30.0,   28.0,  999.0,  999.0,   22.6,  999.0,   19.4,   17.0,  999.0,   13.7,   11.8,   10.3,    8.3,    6.9,    4.9,    3.1,    1.1,  999.0,    0.6
2000/11/18 13:10,  999.0,  999.0,   -0.8,   -1.0,    0.2,   -0.5,    0.1,   -2.1,   -2.0,   -1.7,   -0.1,   -0.9,   -0.1,    1.5,    3.0,    3.3,    2.8,    3.3,   15.8,    2.0,  -15.5,   21.1,  999.0,  999.0,  999.0,  999.0,  999.0,  999.0,  999.0,  999.0,  999.0,  999.0,  999.0,  999.0,  999.0,  999.0,  999.0,  999.0,  999.0,  999.0,  999.0,  999.0,  999.0,  999.0,    2.0,    8.8,    3.4,  999.0,    0.6,  999.0,  999.0,    0.9,  -20.6,  999.0,  999.0,  -20.7,  999.0,    0.6
2000/11/18 13:20,  999.0,   -1.8,    0.0,   -0.0,   -0.5,   -0.2,   -0.2,   -0.2,   -0.1,    0.0,   -0.6,   -0.5,    0.3,    0.7,    2.6,    5.3,    7.0,    9.7,   11.1,   14.0,   13.1,   16.2,  999.0,  999.0,  999.0,  999.0,  999.0,  999.0,   24.9,  999.0,  999.0,  999.0,  999.0,  999.0,  999.0,  999.0,  999.0,  999.0,  999.0,  999.0,  999.0,  999.0,  999.0,  999.0,  999.0,  999.0,  999.0,  999.0,  999.0,  999.0,  999.0,  999.0,  999.0,  999.0,  999.0,  999.0,  999.0,  999.0
2000/11/18 13:30,  999.0,   -0.7,   -2.0,   -1.2,   -1.3,   -2.8,   -2.7,   -2.2,   -2.6,   -1.5,   -0.7,   -0.6,   -0.1,   -0.6,   -1.0,   -0.1,    0.8,    7.8,    1.5,    2.2,    3.4,    4.9,    0.1,    0.3,    7.2,   19.2,   19.6,  999.0,   21.0,   10.8,  -17.8,  999.0,   -0.7,    1.1,   12.4,  999.0,  999.0,  999.0,  999.0,   18.1,  999.0,   11.2,   21.0,   21.1,   21.0,   13.5,    7.1,   21.3,   20.8,   26.6,  999.0,   20.9,   21.5,   21.6,   21.2,   20.6,    1.3,   10.3
2000/11/18 13:40,  999.0,   -2.5,   -4.8,   -3.9,   -4.2,   -3.2,   -3.2,   -2.1,   -2.4,   -2.2,   -0.7,   -1.3,    1.2,    2.4,    1.5,    2.0,    2.8,    3.4,    5.0,    6.4,    3.3,    6.4,    6.0,    7.5,   23.0,   24.1,   23.6,  999.0,  999.0,  999.0,  999.0,  999.0,   24.5,  999.0,    5.5,    0.7,   27.9,   28.4,    8.9,   12.4,  999.0,  999.0,   16.5,    6.9,    8.8,   21.2,   14.5,  999.0,   13.5,  999.0,   20.9,   21.2,   21.4,  999.0,    0.8,  999.0,  999.0,    2.5
2000/11/18 13:50,  999.0,   -1.2,   -2.0,   -2.6,   -3.3,   -3.2,   -2.9,   -1.8,   -2.1,   -1.9,   -1.7,    0.1,    0.7,    0.2,   -0.3,   -2.5,   -2.9,   -5.0,   -7.6,    6.2,    8.1,  999.0,   -8.6,  -18.4,  -18.5,   18.3,  999.0,  999.0,  999.0,  999.0,  999.0,  999.0,  999.0,  -17.5,  -17.8,   12.9,   14.9,    8.1,    0.6,    0.4,    0.7,  -21.0,  999.0,    0.7,  999.0,  -21.1,   29.8,    3.5,    2.0,   22.2,   -0.3,   -7.4,    8.6,   -1.8,    0.9,   -3.9,    3.8,  -20.8
2000/11/18 14:00,  999.0,   -3.0,   -2.4,   -1.2,   -1.5,   -1.8,   -1.4,   -0.8,   -1.1,   -1.4,   -1.0,   -0.4,    0.2,    0.2,    1.0,    2.2,    6.9,    3.9,    9.5,  -12.6,   -1.6,   17.9,  999.0,   16.7,  999.0,  999.0,  -16.0,  999.0,  999.0,  999.0,  999.0,    6.6,  999.0,  999.0,   21.2,   27.6,   27.9,   23.3,   29.3,  999.0,  999.0,  999.0,    0.7,    0.2,   -0.2,   -1.2,    0.9,   -0.0,    0.3,   12.4,   12.2,   10.3,    6.6,    8.8,    7.7,    6.7,   -0.3,    9.0
2000/11/18 14:10,  999.0,   -1.6,   -1.2,   -1.3,   -1.0,   -1.4,   -1.9,   -1.7,   -0.3,   -0.2,    1.1,    2.1,    1.3,    1.9,    1.6,    4.6,    6.4,    7.5,    7.5,    9.9,   14.5,   16.3,   13.3,  999.0,   25.2,  999.0,  999.0,  999.0,  999.0,  999.0,  999.0,  999.0,  999.0,  999.0,  999.0,   23.2,  999.0,   24.1,   22.9,   20.8,  999.0,   21.4,  999.0,   -0.1,  999.0,  999.0,   -0.7,   -0.8,   20.4,   10.8,  999.0,   20.6,  -20.3,    0.8,  -20.5,    0.1,   -0.2,   21.1
2000/11/18 14:20,  999.0,   -2.4,   -1.8,   -2.0,   -2.7,   -2.3,   -1.7,   -1.5,   -0.2,   -0.2,    0.7,    2.4,    3.4,    3.1,  999.0,    4.3,    6.8,    8.7,   10.5,   12.0,   13.8,   15.3,   16.2,  999.0,  999.0,   21.3,   22.5,  999.0,  999.0,  999.0,  999.0,  999.0,   22.2,   20.7,   21.4,   19.8,   21.5,  999.0,  999.0,  999.0,  999.0,  999.0,  999.0,  999.0,  999.0,  999.0,  999.0,  999.0,   27.6,  999.0,   23.4,  999.0,   19.1,   16.7,   14.3,   11.9,   10.2,    7.2
2000/11/18 14:30,  999.0,   -4.3,   -3.6,   -3.1,   -2.7,   -2.0,   -1.1,   -0.1,    1.5,    1.9,    2.0,    2.2,    1.5,    2.4,    1.3,    1.8,    5.7,    8.1,   10.7,   13.1,  999.0,  999.0,   19.2,  999.0,  999.0,  999.0,   27.1,   25.5,  999.0,  999.0,  999.0,   25.0,   21.6,   20.7,   21.3,   20.9,   20.4,  999.0,  999.0,  999.0,  999.0,  999.0,  999.0,  999.0,  999.0,  999.0,  999.0,  999.0,  999.0,  999.0,  999.0,  999.0,  999.0,  999.0,  999.0,  999.0,  999.0,   21.1
2000/11/18 14:40,  999.0,   -2.1,   -2.0,   -1.4,   -5.0,   -4.5,   -3.6,   -2.1,   -1.1,   -0.6,   -0.1,    0.8,    1.3,    1.1,    1.7,    5.1,    8.3,    8.9,   10.9,   12.5,   15.1,  999.0,  999.0,  999.0,  999.0,  999.0,    0.7,    1.1,    0.8,    1.1,   12.7,   22.6,   11.1,    0.8,   10.9,   11.5,  999.0,    1.1,  999.0,    0.5,    0.8,  999.0,    0.8,  999.0,    0.9,    1.2,    1.6,  999.0,    1.2,  999.0,    0.7,  999.0,    0.7,  999.0,    1.0,    0.3,    0.4,   20.1
2000/11/18 14:50,  999.0,   -2.7,   -4.6,   -4.1,   -3.5,   -3.0,   -1.6,   -0.9,   -0.3,   -0.2,   -0.8,    0.2,    0.8,    0.5,    2.4,    5.0,    5.4,    8.4,    7.4,    9.1,   10.8,    8.9,   18.3,   16.1,   13.7,   16.8,  999.0,  999.0,  999.0,  999.0,  999.0,   24.9,   24.8,  999.0,  999.0,   21.5,   22.1,  999.0,  999.0,  999.0,  999.0,  999.0,  999.0,  999.0,  999.0,  999.0,  999.0,  999.0,  999.0,  999.0,  999.0,  999.0,  999.0,  999.0,  999.0,  999.0,   21.9,    1.8
2000/11/18 15:00,  999.0,   -3.0,   -4.4,   -3.9,   -2.6,   -2.1,   -1.2,   -1.3,    0.9,    0.1,    0.3,    1.1,    1.0,    0.4,    0.9,    1.9,    0.8,    2.4,    3.6,    5.4,    6.4,  999.0,    8.5,   11.4,   13.6,   18.2,   20.6,  999.0,  999.0,  999.0,  999.0,  999.0,  999.0,  999.0,  999.0,  999.0,  999.0,  999.0,  999.0,  999.0,  999.0,  999.0,  999.0,  999.0,  999.0,  999.0,  999.0,  999.0,  999.0,  999.0,  999.0,  999.0,  999.0,  999.0,  999.0,  999.0,   20.7,   21.2
2000/11/18 15:10,  999.0,   -2.6,   -4.0,   -4.1,   -3.8,   -3.3,   -2.0,   -0.5,   -0.2,    0.8,    1.4,    0.4,    1.6,    2.1,    2.3,    2.6,    3.6,    5.2,    7.1,    7.2,  999.0,   15.7,   17.9,   20.4,   21.3,  999.0,  999.0,   23.0,   27.4,   27.0,   23.6,   20.4,   21.3,   20.1,  999.0,   19.9,   24.6,   22.4,   23.4,   20.9,  999.0,  999.0,  999.0,   -0.1,  999.0,   -0.7,  999.0,   11.3,  999.0,   -0.3,   -0.8,   -0.9,  999.0,   -0.8,   -1.1,  999.0,  999.0,  999.0
2000/11/18 15:20,  999.0,   -3.2,   -3.3,   -2.8,   -2.4,   -1.7,   -2.0,   -2.7,   -0.4,   -0.9,   -0.5,    0.3,    1.2,    4.3,    6.8,    4.9,   11.2,   13.9,   17.2,   20.4,   23.0,   25.0,   24.4,   23.5,   24.5,   24.2,   24.2,   24.0,   24.1,   24.1,   23.0,   24.1,   23.1,   23.2,   23.1,   23.4,   24.7,   25.4,   24.3,   23.5,  999.0,   -0.5,  999.0,  999.0,   -0.7,   -0.9,  999.0,   -0.5,   -0.4,   -0.9,   -0.6,   -0.8,   10.0,   -0.8,   -0.6,   -0.9,   -1.3,   -1.4
2000/11/18 15:30,  999.0,   -2.6,   -2.0,   -2.9,   -3.9,   -2.8,   -1.7,   -1.4,    1.1,    3.9,   -0.3,    0.5,    7.9,    7.2,   10.8,   16.6,   16.0,   17.7,   18.9,   20.6,   21.7,   22.3,   23.3,   23.6,   23.2,   23.4,   22.2,   22.0,   23.8,   24.6,   23.6,   21.8,   21.7,   22.9,   23.3,   22.3,   21.4,  999.0,  999.0,  999.0,  999.0,  999.0,  999.0,  999.0,  999.0,    7.3,   -0.1,  999.0,  999.0,    0.9,    0.2,  999.0,   -0.2,    0.0,    0.3,  -10.3,  -10.2,   -1.0
2000/11/18 15:40,  999.0,   -1.8,   -2.6,   -2.7,   -2.1,   -1.8,   -1.4,   -1.4,   -0.2,    1.7,  999.0,    0.9,    4.0,    6.3,   10.7,   13.0,   16.9,   19.9,   21.7,   23.1,   22.9,   21.9,   22.0,   23.0,   23.8,   24.2,   24.8,   23.3,   23.7,  999.0,   21.9,  999.0,   20.6,  999.0,  999.0,   -0.7,  999.0,  999.0,   -1.0,  999.0,  999.0,  999.0,  999.0,  999.0,   -0.1,  999.0,   -0.7,  999.0,  -13.4,   -0.5,   -0.3,  -12.6,   -3.3,  -21.0,  999.0,  -17.9,   -7.5,   -1.1
2000/11/18 15:50,  999.0,  999.0,   -3.0,   -3.9,   -3.7,   -2.8,   -0.6,   -0.7,   -0.4,    0.1,    1.6,    3.0,    4.4,    8.8,   11.3,   15.6,   17.4,   20.3,   22.5,   23.4,   23.7,   22.9,   22.7,   23.4,   23.1,   22.3,   22.8,   24.5,   24.6,   22.8,   23.5,   23.8,   23.6,   23.7,  999.0,   22.2,  999.0,  999.0,  999.0,  999.0,  999.0,  999.0,  999.0,  999.0,   -0.5,   -0.2,   -0.8,   -0.8,   -0.9,   -0.8,   -0.8,   -1.0,   -0.9,   -0.7,   -0.0,   -0.8,   -0.5,   -0.8
2000/11/18 16:00,  999.0,  999.0,  999.0,   -2.9,   -3.0,   -2.6,   -0.4,    0.0,    1.6,    1.9,    1.2,    0.8,    1.9,    3.8,    2.7,    7.2,   10.1,   15.2,   20.1,   22.0,   21.8,   22.3,   22.3,   23.3,   22.4,   22.4,   23.0,   23.4,   23.0,   24.1,   22.1,   21.4,   23.2,   21.5,  999.0,  999.0,  999.0,  999.0,  999.0,  999.0,  999.0,  999.0,  999.0,  999.0,   -0.6,   -0.7,   -1.0,   -0.8,   -0.9,   -0.7,   -0.9,   -1.3,   -0.5,   -0.9,   -0.9,   -0.8,   -1.0,   -0.7
2000/11/18 16:10,  999.0,  999.0,  999.0,   -4.6,   -4.4,   -3.7,   -0.6,   -0.6,   -1.2,   -1.0,   -0.2,   -0.5,   -0.6,   -0.4,    1.6,    3.7,    5.6,    8.1,   11.0,   12.7,   14.9,   19.3,   21.6,   24.6,   24.4,   25.2,  999.0,  999.0,  999.0,   24.1,   24.8,   23.7,   23.2,   21.8,   24.3,  999.0,  999.0,  999.0,  999.0,  999.0,  999.0,  999.0,  999.0,  999.0,  999.0,   -0.7,   -0.3,   -0.7,   -1.0,   -0.4,   -0.8,   -0.6,   -0.6,  999.0,   -1.1,   -1.4,   -0.5,   -0.6
2000/11/18 16:20,  999.0,  999.0,  999.0,   -3.3,   -3.6,   -3.3,   -2.7,    0.3,   -0.8,   -1.3,   -1.1,   -1.4,    1.3,    0.8,    1.7,    2.7,    4.2,    7.9,   10.9,   13.9,   16.3,  999.0,   23.6,   24.2,  999.0,   26.4,  999.0,   25.5,   25.3,   23.3,   23.8,   22.7,   24.1,   24.1,  999.0,  999.0,  999.0,  999.0,  999.0,  999.0,  999.0,  999.0,  999.0,  999.0,   -0.7,   -1.0,   -0.7,   -0.7,   -0.6,   -0.9,   -0.8,   -0.6,   -0.5,   -0.6,   -0.7,   -1.2,   -0.7,   -0.8
2000/11/18 16:30,  999.0,  999.0,   -3.8,   -4.3,   -4.6,   -4.5,   -3.6,   -1.4,   -1.1,   -2.5,   -1.7,  999.0,  999.0,   -2.1,  999.0,   -1.2,    2.4,    4.8,   10.2,  999.0,   12.0,   17.9,   18.8,   21.0,   22.9,   25.1,   26.5,   26.3,  999.0,  999.0,   18.4,   19.6,   23.6,   22.5,   23.1,   22.5,  999.0,  999.0,  999.0,  999.0,  999.0,  999.0,  999.0,  999.0,   -0.8,   -0.7,   -0.9,   -1.1,   -0.7,   -0.8,   -0.8,   -0.9,   -0.9,   -0.6,   -0.1,   -0.8,   -0.7,   -0.5
2000/11/18 16:40,  999.0,  999.0,  999.0,  999.0,   -4.4,   -3.0,   -2.2,   -0.7,   -1.3,   -0.9,   -1.4,   -0.5,  999.0,   -0.8,    1.2,    1.0,    3.8,    2.3,    7.0,    9.8,   10.9,   12.9,   13.6,   14.6,  999.0,  999.0,  999.0,   22.9,   25.2,   26.8,   25.5,   26.3,   24.9,   25.0,   25.5,  999.0,  999.0,  999.0,  999.0,  999.0,  999.0,  999.0,  999.0,  999.0,  999.0,    0.3,   -0.8,   -0.8,   -1.1,   -0.6,   -0.2,   -0.3,   -1.3,   -0.7,  999.0,   -0.7,   -0.5,   -1.1
2000/11/18 16:50,  999.0,  999.0,   -5.4,   -6.0,   -5.1,   -3.7,   -2.5,   -0.8,   -0.4,   -2.5,   -1.7,   -1.5,   -1.6,   -2.8,   -1.9,  999.0,   -0.7,    0.5,  999.0,    8.3,    8.4,   12.6,   11.1,  999.0,  999.0,  999.0,   20.1,   19.4,   21.8,   24.2,   23.1,   23.8,   23.9,   23.0,   23.4,   24.3,  999.0,  999.0,  999.0,  999.0,  999.0,  999.0,  999.0,  999.0,  999.0,   -0.8,  999.0,   -0.6,   -0.8,   -0.8,   -0.5,   -0.9,   -1.1,   -0.6,   -0.8,   -0.0,   -0.7,   -0.8
2000/11/18 17:00,  999.0,  999.0,   -4.1,   -3.6,   -4.9,   -4.2,   -1.9,   -3.0,   -1.6,   -1.3,   -0.8,   -1.2,   -1.0,  999.0,  999.0,   -1.5,    4.7,    5.0,    5.6,    9.2,  999.0,  999.0,   17.7,  999.0,   16.6,   19.5,  999.0,  999.0,   23.8,   22.9,   23.0,   21.9,   20.7,  999.0,  999.0,  999.0,   21.0,   18.4,   17.1,  999.0,  999.0,  999.0,  999.0,  999.0,  999.0,  999.0,  999.0,  999.0,  999.0,  999.0,  999.0,   -1.0,   -0.3,   -0.8,   -0.9,  999.0,   -0.7,  999.0
2000/11/18 17:10,  999.0,  999.0,  999.0,  999.0,   -4.7,   -7.2,   -4.1,   -3.1,   -1.9,   -1.7,   -2.1,   -2.6,   -1.8,   -1.5,   -2.9,   -2.3,   -0.3,   -0.2,    1.4,  999.0,    9.6,  999.0,  999.0,   17.0,   17.9,  999.0,  999.0,  999.0,   25.5,   22.0,   21.1,   20.7,   21.0,   20.4,  999.0,  999.0,  999.0,   20.3,   19.6,  999.0,  999.0,  999.0,  999.0,  999.0,   -0.3,  999.0,   -0.1,   -1.0,   -0.8,   -1.0,   -1.0,  999.0,   -0.7,   -0.7,   -1.0,   -0.4,  999.0,   -0.3
2000/11/18 17:20,  999.0,   -4.9,   -5.2,   -5.4,   -4.9,   -4.5,   -3.9,   -3.5,   -2.7,   -1.7,   -1.8,   -1.4,   -1.2,   -1.1,   -1.0,   -1.0,    1.8,    3.6,    5.9,    7.3,   11.2,   11.5,   13.9,   17.2,   21.6,   25.3,   25.0,  999.0,   21.8,   22.8,   22.1,   22.4,   22.2,  999.0,   20.6,   10.8,  999.0,  999.0,   19.6,  999.0,  999.0,  999.0,  999.0,  999.0,  999.0,  999.0,  -27.8,   -0.5,  999.0,   -1.0,   -1.4,   -1.1,   -0.3,   -0.4,   -1.2,   -0.8,   -1.4,  999.0
2000/11/18 17:30,  999.0,   -4.6,   -5.2,   -4.7,   -5.0,   -4.8,   -3.8,   -2.9,   -3.2,   -1.5,   -0.4,   -1.8,   -1.4,   -1.3,   -1.9,   -1.5,   -0.8,    1.8,    1.7,    2.5,    2.5,    3.7,    5.4,    7.9,   -1.9,   -0.9,   -0.7,    0.4,   10.6,   14.9,   18.2,   21.6,   22.8,   23.1,   21.3,   24.5,   22.4,   23.3,   23.1,  999.0,  999.0,  999.0,  999.0,  999.0,  999.0,  999.0,   -0.4,   -0.7,   -0.8,   -0.7,   -1.0,   -0.8,  999.0,   -0.6,   -0.9,   -0.5,   -0.6,  999.0
2000/11/18 17:40,  999.0,   -3.8,   -6.7,   -5.3,   -5.7,   -7.0,   -4.7,   -4.1,   -2.2,   -1.4,   -1.5,   -2.0,   -2.7,   -2.4,   -1.3,   -2.9,   -3.1,   -4.4,   -8.9,  999.0,  999.0,  999.0,  999.0,  -11.1,   -6.8,   -4.6,   -3.9,   -4.6,   -5.8,   -7.0,   -7.4,   -7.7,   -7.2,   -6.3,   -8.3,   -7.3,   -8.4,  -10.6,  -10.6,  -14.8,  999.0,  999.0,  999.0,  999.0,  999.0,  999.0,  999.0,  999.0,  999.0,  999.0,  999.0,  999.0,  999.0,  999.0,  999.0,  999.0,  999.0,  999.0
2000/11/18 17:50,  999.0,   -5.0,   -5.4,   -5.4,   -5.0,   -4.9,   -4.5,   -3.2,   -1.7,   -1.7,   -2.2,   -2.0,   -1.4,   -0.8,   -1.0,   -0.3,    1.9,    9.0,   14.5,  999.0,  999.0,  999.0,  999.0,  999.0,  999.0,  999.0,  999.0,  999.0,  999.0,  999.0,  999.0,  999.0,  999.0,  999.0,  999.0,  999.0,  999.0,  999.0,  999.0,  999.0,  999.0,  999.0,  999.0,  999.0,  999.0,  999.0,  999.0,  999.0,  999.0,  999.0,  999.0,  999.0,  999.0,  999.0,  999.0,  999.0,  999.0,  999.0
2000/11/18 18:00,  999.0,  999.0,   -6.0,   -6.6,  999.0,   -7.0,   -5.0,   -3.7,   -1.7,    0.2,    0.2,   -0.3,   -0.9,   -0.3,   -0.9,  999.0,   -4.1,  999.0,  999.0,  999.0,  999.0,  999.0,  999.0,  999.0,  999.0,  999.0,  999.0,  999.0,  999.0,  999.0,  999.0,  999.0,  999.0,  999.0,  999.0,  999.0,  999.0,  999.0,  999.0,  999.0,  999.0,  999.0,  999.0,  999.0,  999.0,  999.0,  999.0,  999.0,  999.0,  999.0,  999.0,  999.0,  999.0,  999.0,  999.0,  999.0,  999.0,  999.0
2000/11/18 18:10,  999.0,  999.0,   14.8,  999.0,  999.0,   11.4,   13.0,  999.0,  999.0,  999.0,  999.0,  999.0,  999.0,  999.0,  999.0,  999.0,  999.0,   -6.9,   -1.8,   -3.0,   -6.4,    3.7,   -0.3,  999.0,   -4.6,   -2.8,    4.2,    4.0,    1.6,    1.7,    3.7,    5.9,    6.0,    9.3,    7.3,    4.8,    4.9,    4.6,    1.2,    0.8,    0.5,    0.3,    3.2,    1.1,    1.1,    1.2,    1.7,    1.8,    2.1,    1.9,    2.4,    3.2,    3.6,    4.1,    3.6,    3.9,    5.3,    5.0
2000/11/18 18:20,  999.0,    2.3,    3.8,    3.2,    4.3,  999.0,    4.0,   -2.1,   -6.6,   -6.9,   -6.1,   -6.5,   -7.2,   -8.1,   -6.1,   -6.6,   -6.5,   -6.4,   -6.6,   -6.3,   -6.2,   -7.4,   -5.0,   -4.5,   -4.0,   -6.0,   -3.4,   -5.1,    5.2,    4.1,    0.6,    1.9,    2.0,   -1.1,   -0.0,    0.5,   -0.2,   -0.9,    1.7,   -0.3,    4.1,   -1.0,   -1.3,   -1.8,    3.9,    4.6,    3.7,    3.8,    3.7,    3.4,    2.4,    2.2,    2.2,    2.4,    3.1,    0.5,    0.4,    1.5
2000/11/18 18:30,  999.0,    4.0,    4.2,    2.5,    3.7,    4.9,    3.9,    2.6,    1.8,    0.4,   -1.2,   -2.4,   -1.9,   -0.5,   -0.7,   -0.6,   -0.4,   -0.2,    0.3,    0.6,    0.0,   -0.0,    1.7,    1.8,    1.2,    1.7,    1.8,   -0.9,    0.5,    0.0,   -1.9,   -4.8,   -0.1,    3.5,    4.3,    4.7,    3.1,    4.2,    4.5,    3.4,    2.6,    1.3,    0.1,   -0.2,   -0.5,   -0.2,   -0.2,   -0.6,   -1.0,   -0.6,   -1.4,   -1.6,   -1.0,   -0.9,   -0.4,   -0.3,    0.1,   -0.2
2000/11/18 18:40,  999.0,    1.3,    0.3,    1.2,    1.1,   -0.2,   -0.4,   -1.3,   -1.9,   -1.5,    0.2,   -0.2,    0.7,    2.0,    1.3,    0.9,   -0.6,   -1.5,   -1.9,   -2.1,   -3.0,   -4.3,   -4.6,   -4.7,   -5.3,   -5.2,   -5.9,   -5.6,   -5.2,   -3.2,   -2.9,   -1.7,   -0.4,    0.3,   -0.6,   -1.4,   -0.6,   -0.3,   -0.9,   -1.0,   -1.2,   -1.5,   -0.8,   -0.3,    0.1,    0.4,    0.5,    0.2,    0.1,   -0.0,    0.4,    1.0,    1.4,    1.1,    0.4,   -0.7,   -1.3,   -2.2
2000/11/18 18:50,  999.0,    2.5,    0.8,   -0.2,   -4.0,   -4.9,   -4.6,   -3.9,   -0.5,    1.7,   -1.7,   -2.0,   -1.2,    0.1,   -3.9,   -2.0,   -0.9,    1.0,    2.2,    3.1,    3.9,    3.4,    2.0,    1.3,    1.1,   -0.1,   -3.4,   -3.6,   -3.7,   -4.3,   -4.4,   -2.8,   -1.0,    0.9,    1.5,    2.3,   -0.6,   -1.8,   -2.0,   -2.7,   -0.9,   -2.5,   -1.9,    1.6,    1.6,    1.2,    1.2,    1.5,    2.1,    1.3,    1.6,    2.6,    1.3,   -0.4,   -0.7,   -2.5,   -2.1,   -0.3
2000/11/18 19:00,  999.0,    3.0,    4.5,    2.2,    1.2,    0.3,    0.2,   -2.9,   -3.2,   -3.3,   -1.7,   -0.6,   -0.5,   -0.5,   -2.6,   -0.6,   -0.0,    0.9,    0.8,    0.6,   -0.6,   -1.4,   -2.3,   -4.8,   -4.6,   -6.2,   -6.2,   -5.7,   -7.2,   -8.0,   -9.8,   -8.7,   -8.8,   -6.8,   -4.8,   -3.1,   -0.5,   -3.1,   -2.3,   -0.6,   -1.0,   -3.1,   -4.6,   -1.4,   -1.2,  999.0,  999.0,  999.0,  999.0,  999.0,  999.0,  999.0,  999.0,  999.0,  999.0,  999.0,  999.0,  999.0
2000/11/18 19:10,  999.0,    1.2,   -0.6,   -1.4,   -1.7,   -2.8,   -3.5,   -3.1,   -2.9,   -2.2,   -1.2,   -1.4,   -0.1,   -0.0,    0.2,    0.6,   -0.1,   -0.6,   -1.5,   -1.6,   -1.4,   -1.0,   -1.1,   -0.2,   -0.6,   -5.2,   -3.9,   -3.0,   -1.1,   -1.7,   -4.2,   -5.8,   -5.9,   -8.7,   -7.1,   -7.2,   -8.3,   -4.5,   -2.2,   -0.0,    2.6,    0.1,    1.9,    2.0,    3.1,  999.0,    6.0,   13.7,   13.6,  999.0,   10.3,   12.8,   17.4,   16.8,   16.3,  999.0,  999.0,  999.0
2000/11/18 19:20,  999.0,    0.5,   -0.2,    1.0,   -1.1,   -2.7,   -2.2,   -1.7,   -2.2,   -2.8,    0.2,    2.3,    4.1,    5.6,    6.1,    3.7,    3.4,    2.9,    3.9,    3.3,    4.0,  999.0,  999.0,    8.6,   11.0,    7.6,    6.2,    5.4,    0.3,    4.0,   -0.0,   -1.4,   -1.6,   -2.0,   -0.2,   -0.4,   -1.0,    1.8,    3.2,    2.9,    3.7,    4.4,    5.8,    1.4,    3.0,    6.8,    7.9,    9.7,   12.0,   13.0,    5.7,    6.3,    5.2,    5.9,    8.6,    9.5,   17.5,  999.0
2000/11/18 19:30,  999.0,    0.3,    3.8,    2.2,   -2.1,   -7.5,  -10.2,   -6.2,   -4.5,   -2.4,   -1.5,   -1.8,   -1.6,   -1.7,   -1.1,   -0.4,    0.3,    0.8,    1.6,    2.3,    1.9,    1.6,    1.4,    2.4,    2.2,    1.5,    2.2,    2.5,    2.3,    2.2,    1.6,    2.3,    0.9,   -0.8,   11.6,   15.0,   12.5,   10.2,    5.6,    5.7,   10.2,    9.6,    8.0,    7.8,    8.1,    7.3,    7.0,    7.8,    9.1,    5.3,    9.1,    8.6,    6.8,   12.7,   10.6,   14.9,   10.1,   19.9
2000/11/18 19:40,  999.0,    2.4,   -1.1,   -1.4,   -4.8,   -4.2,   -2.6,   -2.6,   -2.5,   -1.8,   -1.6,   -1.9,   -2.1,   -1.8,   -2.3,   -2.3,   -0.8,   -0.9,    0.1,    1.3,    1.0,    1.0,    1.5,    3.0,    4.0,    4.7,    5.1,    8.7,    8.5,    9.6,    9.8,    3.0,    2.6,    2.6,    2.3,    0.8,   -0.1,   -0.4,    0.3,    1.4,    0.8,   -1.1,   -2.7,   -1.9,   -0.3,    2.1,    2.4,   -1.4,    0.4,    0.6,    3.8,  999.0,  999.0,  999.0,    1.7,    2.6,    3.7,  999.0
2000/11/18 19:50,  999.0,   -1.5,   -2.2,   -1.6,   -3.3,   -4.2,   -4.6,   -2.5,    3.0,    1.9,    1.0,    0.2,    3.6,   -0.4,    0.2,    6.1,    9.3,    7.1,    6.4,    7.4,    8.9,   10.3,   11.8,   13.3,   14.6,   16.1,   17.7,   19.1,   20.1,   20.3,   20.2,   18.7,   19.1,   18.8,   19.2,   19.6,   19.6,   18.8,   20.1,  999.0,  999.0,  999.0,  999.0,  999.0,  999.0,  999.0,  999.0,  999.0,  999.0,  999.0,  999.0,  999.0,  999.0,  999.0,  999.0,  999.0,  999.0,  999.0
2000/11/18 20:00,  999.0,  999.0,  999.0,   -2.9,   -0.9,   -2.4,    0.6,    2.1,    2.3,    0.4,   -0.8,   -1.9,   -2.2,   -1.8,   -0.3,    0.7,    1.6,    0.5,    0.6,    0.7,    1.5,   -1.0,   -0.8,   -0.1,    0.7,    1.4,    1.3,    2.7,    3.0,    2.9,    3.0,    1.8,    2.0,    2.3,    3.0,    3.6,    4.6,    3.8,    4.1,  999.0,  999.0,  999.0,  999.0,  999.0,  999.0,  999.0,  999.0,  999.0,  999.0,  999.0,  999.0,  999.0,  999.0,  999.0,  999.0,  999.0,   -0.0,    1.1
2000/11/18 20:10,  999.0,  999.0,   -5.6,   -5.6,   -0.3,   -1.0,   -2.0,   -3.8,   -2.7,   -0.6,    1.1,    1.7,    1.5,    1.0,    1.0,    0.3,    0.4,    1.0,    1.8,    1.5,    3.4,    3.4,    3.3,    3.3,    3.4,    3.7,    4.7,    4.8,    4.2,    4.5,    5.1,    5.8,    6.0,    6.8,    7.1,  999.0,  999.0,  999.0,  999.0,  999.0,  999.0,  999.0,  999.0,  999.0,  999.0,  999.0,  999.0,  999.0,    8.7,    6.6,    7.5,    8.2,    8.3,    9.4,    7.9,    6.1,    3.9,    4.3
2000/11/18 20:20,  999.0,   -8.1,   -4.0,   -3.4,   -4.6,   -1.6,    0.8,    1.5,    3.1,    3.9,    2.7,    1.4,    1.0,    2.6,    3.4,    4.0,    4.8,    4.7,    5.5,    5.9,    5.2,    4.4,    3.9,    4.7,    5.3,    7.1,    9.1,    9.5,    8.8,    8.5,    9.6,   11.1,   11.2,    6.1,    6.8,   -3.9,   -2.8,   -4.0,   -5.8,   -4.0,   -4.3,   -4.2,   -4.3,   -3.5,   -0.0,    1.3,    2.9,    3.4,    2.8,    1.7,    1.1,    1.4,    2.2,    2.6,    3.9,    4.5,    5.1,    5.2
2000/11/18 20:30,  999.0,    0.6,   -2.4,   -3.0,   -2.5,   -8.3,   -7.8,   -6.7,   -0.3,    1.0,    0.6,   -9.8,   -8.4,   -8.1,   -6.4,   -5.8,   -5.3,   -3.9,   -1.9,   -0.1,    0.0,    0.1,    0.6,    1.0,    2.0,    3.3,    2.7,    3.1,    2.4,    1.0,   -0.3,   -0.5,    0.7,    2.7,    4.7,    4.7,    4.2,    3.3,    2.9,    1.2,    2.6,    3.1,    2.1,    2.3,    0.4,   -0.9,   -1.4,   -1.5,   -2.4,   -3.5,   -4.3,   -4.2,   -3.7,   -3.8,   -1.9,   -2.4,   -1.4,    0.0
2000/11/18 20:40,  999.0,   -4.5,   -2.7,   -1.5,   -2.4,   -1.8,   -1.2,   -2.3,   -1.7,   -1.9,   -3.2,   -2.2,   -1.1,   -0.4,   -0.2,    0.2,    0.7,    1.2,    2.2,    3.6,    5.7,    4.3,    3.6,    1.5,    0.3,    1.7,    1.1,    1.7,    2.1,    0.3,   -0.1,   -0.2,    1.2,    1.4,    2.3,    1.8,    2.3,    3.3,    1.0,   -0.5,   -3.7,   -1.8,   -0.9,   -1.7,   -3.3,   -1.1,    0.1,    0.3,    0.2,   -0.5,   -0.9,   -1.5,   -1.4,   -2.6,   -1.4,   -1.8,   -1.4,   -0.3
2000/11/18 20:50,  999.0,   -0.9,   -2.5,   -3.8,   -3.8,   -5.4,   -3.9,   -3.8,   -2.3,   -2.3,   -1.9,   -0.9,   -0.6,   -1.0,   -0.8,   -0.7,    1.4,    1.0,    0.1,    3.3,    3.0,    4.8,    5.2,    5.2,    3.4,    4.2,    5.1,    5.7,    3.1,    2.7,    2.4,    2.5,    4.6,    5.9,    4.7,    5.8,    7.1,    6.8,    7.4,    8.3,    6.9,    6.6,    5.9,    4.8,    6.0,    4.9,    6.1,    3.0,    3.8,    3.7,    1.5,    2.0,    0.4,   -0.7,   -2.6,   -3.9,   -4.5,   -4.9
2000/11/18 21:00,   -3.1,   -2.5,   -2.1,   -2.7,   -3.4,   -3.2,   -4.9,   -3.5,   -3.2,   -3.3,   -2.7,   -0.9,   -1.5,   -1.8,   -1.0,   -0.4,    0.2,    0.6,    0.1,   -0.4,   -1.3,    0.0,    1.0,    1.2,    1.0,    1.4,    1.9,    2.7,    2.7,    1.8,   -0.0,   -0.4,    0.8,    3.3,    5.1,    6.0,    7.2,    7.3,    8.6,    6.3,    6.6,    7.6,    4.7,    2.3,    2.6,    0.7,   -0.8,    0.1,   -1.4,    0.6,    1.0,    2.4,    3.0,    2.8,    1.5,    1.0,    0.7,    0.5
2000/11/18 21:10,   -3.3,   -3.2,   -3.5,   -4.0,   -2.8,   -2.6,   -2.1,   -1.6,   -0.8,   -1.6,   -2.9,   -2.7,   -2.2,   -2.7,   -1.8,   -1.3,   -0.9,   -0.5,    0.2,    0.8,    1.4,    1.8,    1.7,    1.9,    1.9,    1.8,    1.7,    2.0,    1.7,    1.4,    0.2,   -0.4,   -1.2,   -1.4,   -0.5,    0.1,    1.4,    2.3,    2.9,    2.9,    2.4,    2.0,    2.1,    5.9,    4.6,    5.1,    4.5,    3.9,    3.8,    4.3,    4.5,    4.9,    4.7,    4.7,    4.8,    5.3,    5.5,    5.7
2000/11/18 21:20,   -3.0,   -3.4,   -3.2,   -2.8,   -3.0,   -3.3,   -3.2,   -3.1,   -2.3,   -1.8,   -2.1,   -1.9,   -1.4,   -1.8,   -1.7,   -1.4,   -1.3,   -0.5,   -0.6,   -1.3,   -1.4,   -0.4,    0.5,    0.7,    1.1,    1.6,    2.1,    1.8,    1.2,    0.0,   -1.2,   -1.5,   -1.9,   -2.4,   -4.0,   -4.9,   -5.0,   -4.8,   -4.2,   -4.8,   -7.0,   -7.6,   -5.0,   -1.4,    0.3,    1.1,    2.1,    2.1,    2.6,    3.0,    3.6,    3.4,    3.6,    4.0,    4.0,    4.1,    3.8,    4.0
2000/11/18 21:30,  999.0,  999.0,  999.0,  999.0,  999.0,  999.0,  999.0,  999.0,  999.0,  999.0,  999.0,  999.0,  999.0,    8.4,  999.0,  999.0,  999.0,  999.0,  999.0,  999.0,  999.0,   22.0,   21.6,   22.5,   22.6,   22.6,   23.3,   23.0,   22.6,   22.4,   22.3,   21.6,   21.2,  999.0,  999.0,  999.0,  999.0,   18.5,   16.3,  999.0,  999.0,  999.0,  999.0,  999.0,   12.1,  999.0,  999.0,  999.0,  999.0,  999.0,   20.6,  999.0,    9.8,    5.8,    3.3,    4.9,    4.0,    2.6
2000/11/18 21:40,  999.0,  999.0,  999.0,  999.0,  999.0,  999.0,  -12.2,  -11.7,  -11.2,  -10.8,  999.0,  999.0,  999.0,  999.0,  999.0,  999.0,  999.0,  999.0,  999.0,   20.4,   20.9,   21.2,   22.1,   20.2,   22.2,   22.6,   23.1,   23.5,   23.1,   22.4,   23.2,   21.8,   20.8,   19.5,   18.1,  999.0,  999.0,  999.0,  999.0,  999.0,  999.0,  999.0,  999.0,  999.0,  999.0,  999.0,  999.0,  999.0,   19.9,   19.6,  999.0,  999.0,   20.2,  999.0,  999.0,  999.0,  999.0,  999.0
2000/11/18 21:50,  999.0,    5.8,  999.0,   -3.9,    4.4,    2.6,    1.1,    2.5,  999.0,    6.4,    5.9,  999.0,  999.0,  999.0,   16.2,   12.9,   14.2,   17.3,   20.2,   19.5,   20.9,  999.0,   20.2,   21.9,   21.9,   22.5,   23.9,   23.8,   23.4,   23.5,   23.7,   22.9,   21.7,   21.8,   19.8,  999.0,  999.0,  999.0,  999.0,  999.0,  999.0,  999.0,  999.0,  999.0,  999.0,  999.0,   20.5,   20.5,  999.0,  999.0,  999.0,   19.8,  999.0,  999.0,  999.0,  999.0,  999.0,  999.0
2000/11/18 22:00,  999.0,  999.0,    6.5,   16.4,  999.0,    6.9,    8.6,    6.3,    8.0,    8.8,   -2.0,   -3.2,   -3.6,    8.9,   13.0,   20.8,   20.0,   17.8,   21.0,   20.7,   21.3,   21.5,  999.0,   21.7,   22.6,  999.0,   23.3,   23.3,   23.1,   23.3,   23.9,   23.6,   22.3,   21.0,   20.3,   18.2,  999.0,   19.9,  999.0,  999.0,  999.0,  999.0,   20.3,  999.0,   20.4,  999.0,   21.8,  999.0,  999.0,  999.0,  999.0,  999.0,   20.5,  999.0,  999.0,  999.0,  999.0,  999.0
2000/11/18 22:10,   -2.0,    0.6,   12.5,   17.6,   12.0,   10.0,   16.6,   10.5,   12.4,   15.0,   16.9,   19.3,   18.9,   16.9,   13.7,   13.9,   16.1,   16.3,   18.3,   20.2,   20.6,   20.2,   21.3,   22.5,   23.7,   22.8,   23.4,   22.5,   22.7,   22.1,   22.7,   23.4,   20.4,   20.4,   18.7,   19.0,  999.0,  999.0,  999.0,  999.0,  999.0,   22.9,  999.0,  999.0,  999.0,   21.0,   22.3,  999.0,  999.0,  999.0,  999.0,  999.0,  999.0,  999.0,  999.0,  999.0,  999.0,  999.0
2000/11/18 22:20,   22.8,   19.7,   20.2,   17.4,    9.2,    6.6,    7.3,    6.4,    8.1,    4.8,    3.3,   16.3,    6.8,    5.7,    8.3,    6.7,    7.8,    9.7,    9.6,  999.0,   10.9,  999.0,  999.0,    7.6,  999.0,  999.0,  999.0,   18.5,   19.3,   20.0,   19.0,   19.9,   16.5,   17.3,   16.5,   17.1,  999.0,  999.0,  999.0,  999.0,  999.0,  999.0,  999.0,  999.0,  999.0,   21.4,  999.0,  999.0,  999.0,  999.0,  999.0,  999.0,  999.0,  999.0,  999.0,  999.0,  999.0,  999.0
2000/11/18 22:30,   14.8,    6.3,   -1.7,    7.3,   -1.6,    1.8,   -1.7,   -3.3,   -5.2,  999.0,   -4.7,   -4.4,   -5.0,   -2.1,   -1.9,   -1.8,   -2.5,   -0.0,  999.0,  999.0,    4.1,    3.8,  999.0,  999.0,  999.0,  999.0,   14.2,   13.6,  999.0,   15.5,   16.9,   17.8,   17.7,   17.9,   18.3,   19.1,  999.0,  999.0,  999.0,   20.7,  999.0,  999.0,  999.0,  999.0,  999.0,  999.0,  999.0,  999.0,  999.0,  999.0,  999.0,  999.0,  999.0,  999.0,  999.0,   20.0,  999.0,  999.0
2000/11/18 22:40,   12.8,    7.3,    5.1,    2.0,    0.2,   -1.4,   -2.2,  999.0,   -0.3,   -4.0,   -3.8,   -3.3,   -2.7,  999.0,   -2.3,   -1.3,    0.3,    1.1,  999.0,  999.0,    6.7,    7.5,  999.0,  999.0,  999.0,   13.0,  999.0,  999.0,  999.0,  999.0,   19.3,   19.8,   19.8,   20.2,  999.0,  999.0,  999.0,  999.0,  999.0,   21.8,  999.0,  999.0,  999.0,  999.0,   20.6,  999.0,  999.0,  999.0,  999.0,  999.0,  999.0,  999.0,  999.0,  999.0,  999.0,  999.0,  999.0,  999.0
2000/11/18 22:50,  999.0,  999.0,    8.7,    6.3,  999.0,   -3.0,   -6.6,   -7.5,   -7.0,  999.0,   -8.3,   -5.4,   -4.6,  999.0,   -6.1,   -3.0,   -0.6,   -1.9,   -2.0,  999.0,  999.0,    5.6,    2.2,  999.0,    9.2,   10.0,  999.0,    9.5,   14.8,   14.8,   15.7,   16.3,   15.7,   17.6,  999.0,  999.0,  999.0,  999.0,   20.4,   21.1,   20.8,  999.0,  999.0,  999.0,  999.0,  999.0,  999.0,  999.0,  999.0,   21.0,  999.0,   20.6,  999.0,  999.0,  999.0,  999.0,  999.0,  999.0
2000/11/18 23:00,  999.0,  999.0,  999.0,   -1.1,    1.1,  999.0,   -4.9,   -1.4,   -1.3,   -3.8,   -2.8,   -2.8,   -2.5,   -0.6,  999.0,  999.0,  999.0,  999.0,  999.0,  999.0,  999.0,    3.5,  999.0,    7.6,    9.2,   11.5,   13.4,  999.0,  999.0,  999.0,   22.1,   19.9,   20.7,   20.7,   19.4,   21.5,   21.3,   22.5,  999.0,   21.6,  999.0,  999.0,  999.0,  999.0,  999.0,   22.4,  999.0,  999.0,  999.0,  999.0,  999.0,  999.0,  999.0,  999.0,  999.0,  999.0,  999.0,  999.0
2000/11/18 23:10,  999.0,    6.4,  999.0,   -2.4,   -3.8,   -6.7,   -3.6,   -6.5,   -3.3,   -2.7,   -1.7,   -3.0,   -2.0,   -2.4,   -2.6,  999.0,   -5.2,   -1.9,    1.8,    5.7,  999.0,  999.0,  999.0,  999.0,   11.7,   12.6,   13.4,   15.9,   17.1,   18.7,   19.2,   19.9,   20.3,   19.9,  999.0,  999.0,  999.0,   23.0,  999.0,  999.0,  999.0,  999.0,  999.0,  999.0,   20.6,  999.0,  999.0,  999.0,  999.0,  999.0,  999.0,  999.0,  999.0,  999.0,  999.0,  999.0,  999.0,  999.0
2000/11/18 23:20,    9.7,    5.1,   -1.0,   -6.7,   -1.8,   -2.1,   -4.4,   -5.5,   -7.4,   -5.4,  999.0,   -1.8,    0.3,    0.4,   -1.3,  999.0,  999.0,  999.0,  999.0,  999.0,  999.0,  999.0,  999.0,    8.1,    9.4,   11.1,   12.9,   15.6,   21.4,  999.0,   22.9,   21.5,   19.8,  999.0,  999.0,  999.0,  999.0,  999.0,   22.4,  999.0,  999.0,  999.0,   22.1,  999.0,  999.0,  999.0,  999.0,  999.0,  999.0,  999.0,  999.0,  999.0,  999.0,  999.0,  999.0,  999.0,  999.0,  999.0
2000/11/18 23:30,   14.5,  999.0,    3.7,   -0.5,   -3.0,   -3.0,   -2.6,   -2.5,   -3.4,   -3.7,   -3.3,   -3.3,   -0.5,   -1.5,   -1.6,   -2.6,   -1.2,   -6.1,  999.0,  999.0,  999.0,  999.0,    5.8,  999.0,  999.0,  999.0,  999.0,  999.0,  999.0,   20.9,   21.7,   18.2,  999.0,  999.0,   19.6,   21.9,   22.1,   22.7,  999.0,  999.0,  999.0,  999.0,  999.0,  999.0,  999.0,  999.0,  999.0,  999.0,  999.0,  999.0,  999.0,  999.0,  999.0,  999.0,  999.0,  999.0,  999.0,  999.0
2000/11/18 23:40,   12.7,    6.1,  999.0,    3.6,   -1.5,   -3.1,   -3.9,   -4.7,   -5.6,   -4.1,   -3.1,   -3.4,   -4.3,   -1.6,   -2.3,   -2.5,   -1.6,   -0.6,   -0.5,  999.0,   -0.5,  999.0,    5.0,  999.0,  999.0,  999.0,  999.0,  999.0,  999.0,  999.0,   23.3,   23.7,   23.5,   22.4,  999.0,   22.4,   21.0,   21.4,  999.0,  999.0,  999.0,  999.0,  999.0,  999.0,  999.0,  999.0,  999.0,  999.0,  999.0,  999.0,  999.0,  999.0,  999.0,  999.0,  999.0,  999.0,  999.0,  999.0
2000/11/18 23:50,   21.2,   13.6,    7.1,    3.0,  999.0,  999.0,   -2.6,   -2.4,   -0.0,   -0.5,   -7.4,  999.0,   -2.9,   -0.8,   -1.0,   -2.5,   -2.1,   -0.4,    2.0,    4.8,  999.0,  999.0,  999.0,  999.0,  999.0,  999.0,  999.0,  999.0,  999.0,   21.8,   22.9,   23.3,   23.8,   23.9,   22.8,  999.0,   21.3,   23.1,  999.0,  999.0,  999.0,  999.0,  999.0,  999.0,  999.0,  999.0,  999.0,  999.0,  999.0,  999.0,  999.0,  999.0,  999.0,  999.0,  999.0,  999.0,  999.0,  999.0
